Time,TemperatureF,DewpointF,PressureIn,WindDirection,WindDirectionDegrees,WindSpeedMPH,WindSpeedGustMPH,Humidity,HourlyPrecipIn,Conditions,Clouds,dailyrainin,SoftwareType,DateUTC
2013-06-05 00:00:00,58.4,50.5,30.11,East,90,1.0,1.0,75,0.00,,,0.06,Wunderground v.1.15,2013-06-05 04:00:00,
2013-06-05 00:01:00,58.4,50.5,30.11,East,90,0.0,1.0,75,0.00,,,0.06,Wunderground v.1.15,2013-06-05 04:01:00,
2013-06-05 00:02:00,58.4,50.5,30.11,East,90,0.0,1.0,75,0.00,,,0.06,Wunderground v.1.15,2013-06-05 04:02:00,
2013-06-05 00:03:00,58.5,50.6,30.11,East,90,0.0,1.0,75,0.00,,,0.06,Wunderground v.1.15,2013-06-05 04:03:00,
2013-06-05 00:07:00,58.7,50.4,30.11,East,90,0.0,1.0,74,0.00,,,0.06,Wunderground v.1.15,2013-06-05 04:07:00,
2013-06-05 00:08:00,58.8,50.5,30.11,East,92,0.0,1.0,74,0.00,,,0.06,Wunderground v.1.15,2013-06-05 04:08:00,
2013-06-05 00:09:00,58.8,50.5,30.11,East,92,0.0,1.0,74,0.00,,,0.06,Wunderground v.1.15,2013-06-05 04:09:00,
2013-06-05 00:10:00,58.9,50.6,30.11,East,92,0.0,0.0,74,0.00,,,0.06,Wunderground v.1.15,2013-06-05 04:10:00,
2013-06-05 00:11:00,58.9,50.6,30.11,East,92,0.0,0.0,74,0.00,,,0.06,Wunderground v.1.15,2013-06-05 04:11:00,
2013-06-05 00:13:00,58.8,50.5,30.11,East,92,1.0,1.0,74,0.00,,,0.06,Wunderground v.1.15,2013-06-05 04:13:00,
2013-06-05 00:16:00,58.9,50.6,30.11,East,92,1.0,1.0,74,0.00,,,0.00,Wunderground v.1.15,2013-06-05 04:16:00,
2013-06-05 00:17:00,58.9,50.6,30.11,East,92,1.0,1.0,74,0.00,,,0.00,Wunderground v.1.15,2013-06-05 04:17:00,
2013-06-05 00:22:00,59.2,50.5,30.11,East,95,0.0,0.0,73,0.00,,,0.00,Wunderground v.1.15,2013-06-05 04:22:00,
2013-06-05 00:23:00,59.2,50.5,30.11,East,95,0.0,0.0,73,0.00,,,0.00,Wunderground v.1.15,2013-06-05 04:23:00,
2013-06-05 00:24:00,59.2,50.2,30.11,East,95,0.0,0.0,72,0.00,,,0.00,Wunderground v.1.15,2013-06-05 04:24:00,
2013-06-05 00:25:00,59.3,50.3,30.11,East,95,0.0,0.0,72,0.00,,,0.00,Wunderground v.1.15,2013-06-05 04:25:00,
2013-06-05 00:28:00,59.5,50.5,30.11,East,95,1.0,1.0,72,0.00,,,0.00,Wunderground v.1.15,2013-06-05 04:28:00,
2013-06-05 00:29:00,59.5,50.5,30.11,East,95,0.0,1.0,72,0.00,,,0.00,Wunderground v.1.15,2013-06-05 04:29:00,
2013-06-05 00:31:00,59.6,50.2,30.11,East,95,0.0,0.0,71,0.00,,,0.00,Wunderground v.1.15,2013-06-05 04:31:00,
2013-06-05 00:32:00,59.6,50.2,30.11,East,98,0.0,0.0,71,0.00,,,0.00,Wunderground v.1.15,2013-06-05 04:32:00,
2013-06-05 00:35:00,59.6,50.2,30.11,East,98,1.0,1.0,71,0.00,,,0.00,Wunderground v.1.15,2013-06-05 04:35:00,
2013-06-05 00:36:00,59.6,50.2,30.11,East,98,0.0,1.0,71,0.00,,,0.00,Wunderground v.1.15,2013-06-05 04:36:00,
2013-06-05 00:37:00,59.6,50.2,30.11,East,98,1.0,1.0,71,0.00,,,0.00,Wunderground v.1.15,2013-06-05 04:37:00,
2013-06-05 00:41:00,59.6,49.8,30.11,East,98,0.0,1.0,70,0.00,,,0.00,Wunderground v.1.15,2013-06-05 04:41:00,
2013-06-05 00:42:00,59.6,49.8,30.11,East,98,0.0,1.0,70,0.00,,,0.00,Wunderground v.1.15,2013-06-05 04:42:00,
2013-06-05 00:45:00,59.5,50.1,30.11,East,98,0.0,1.0,71,0.00,,,0.00,Wunderground v.1.15,2013-06-05 04:45:00,
2013-06-05 00:47:00,59.5,50.1,30.11,East,98,0.0,1.0,71,0.00,,,0.00,Wunderground v.1.15,2013-06-05 04:47:00,
2013-06-05 00:50:00,59.4,50.0,30.11,East,96,0.0,0.0,71,0.00,,,0.00,Wunderground v.1.15,2013-06-05 04:50:00,
2013-06-05 00:51:00,59.4,50.0,30.11,East,96,0.0,0.0,71,0.00,,,0.00,Wunderground v.1.15,2013-06-05 04:51:00,
2013-06-05 00:52:00,59.4,50.0,30.11,East,96,0.0,0.0,71,0.00,,,0.00,Wunderground v.1.15,2013-06-05 04:52:00,
2013-06-05 00:56:00,59.3,49.9,30.11,East,97,0.0,0.0,71,0.00,,,0.00,Wunderground v.1.15,2013-06-05 04:56:00,
2013-06-05 00:57:00,59.2,49.8,30.11,East,97,0.0,0.0,71,0.00,,,0.00,Wunderground v.1.15,2013-06-05 04:57:00,
2013-06-05 00:59:00,59.1,49.7,30.11,East,97,0.0,0.0,71,0.00,,,0.00,Wunderground v.1.15,2013-06-05 04:59:00,
2013-06-05 01:03:00,58.9,49.9,30.11,East,97,1.0,1.0,72,0.00,,,0.00,Wunderground v.1.15,2013-06-05 05:03:00,
2013-06-05 01:05:00,58.9,49.9,30.11,East,97,0.0,1.0,72,0.00,,,0.00,Wunderground v.1.15,2013-06-05 05:05:00,
2013-06-05 01:08:00,58.9,49.5,30.11,East,98,1.0,1.0,71,0.00,,,0.00,Wunderground v.1.15,2013-06-05 05:08:00,
2013-06-05 01:09:00,59.0,50.0,30.11,East,98,1.0,1.0,72,0.00,,,0.00,Wunderground v.1.15,2013-06-05 05:09:00,
2013-06-05 01:10:00,59.0,50.0,30.11,East,98,1.0,1.0,72,0.00,,,0.00,Wunderground v.1.15,2013-06-05 05:10:00,
2013-06-05 01:11:00,59.0,49.6,30.11,East,98,2.0,2.0,71,0.00,,,0.00,Wunderground v.1.15,2013-06-05 05:11:00,
2013-06-05 01:14:00,59.1,50.1,30.11,East,98,1.0,2.0,72,0.00,,,0.00,Wunderground v.1.15,2013-06-05 05:14:00,
2013-06-05 01:16:00,59.1,50.1,30.11,East,98,0.0,2.0,72,0.00,,,0.00,Wunderground v.1.15,2013-06-05 05:16:00,
2013-06-05 01:17:00,59.1,50.1,30.11,East,99,1.0,2.0,72,0.00,,,0.00,Wunderground v.1.15,2013-06-05 05:17:00,
2013-06-05 01:20:00,59.2,50.2,30.10,East,99,1.0,1.0,72,0.00,,,0.00,Wunderground v.1.15,2013-06-05 05:20:00,
2013-06-05 01:23:00,59.3,49.9,30.10,East,99,2.0,2.0,71,0.00,,,0.00,Wunderground v.1.15,2013-06-05 05:23:00,
2013-06-05 01:25:00,59.3,49.9,30.11,East,99,0.0,2.0,71,0.00,,,0.00,Wunderground v.1.15,2013-06-05 05:25:00,
2013-06-05 01:26:00,59.4,50.0,30.10,East,99,1.0,2.0,71,0.00,,,0.00,Wunderground v.1.15,2013-06-05 05:26:00,
2013-06-05 01:27:00,59.4,50.0,30.10,East,99,0.0,2.0,71,0.00,,,0.00,Wunderground v.1.15,2013-06-05 05:27:00,
2013-06-05 01:28:00,59.5,50.1,30.11,East,100,1.0,2.0,71,0.00,,,0.00,Wunderground v.1.15,2013-06-05 05:28:00,
2013-06-05 01:30:00,59.5,49.7,30.11,ESE,114,0.0,1.0,70,0.00,,,0.00,Wunderground v.1.15,2013-06-05 05:30:00,
2013-06-05 01:32:00,59.6,49.8,30.10,ESE,114,1.0,1.0,70,0.00,,,0.00,Wunderground v.1.15,2013-06-05 05:32:00,
2013-06-05 01:33:00,59.7,49.9,30.10,ESE,115,0.0,1.0,70,0.00,,,0.00,Wunderground v.1.15,2013-06-05 05:33:00,
2013-06-05 01:34:00,59.7,49.9,30.10,ESE,115,0.0,1.0,70,0.00,,,0.00,Wunderground v.1.15,2013-06-05 05:34:00,
2013-06-05 01:37:00,59.8,49.6,30.10,ESE,114,1.0,1.0,69,0.00,,,0.00,Wunderground v.1.15,2013-06-05 05:37:00,
2013-06-05 01:38:00,59.8,49.6,30.10,ESE,114,0.0,1.0,69,0.00,,,0.00,Wunderground v.1.15,2013-06-05 05:38:00,
2013-06-05 01:39:00,59.9,49.7,30.10,East,80,1.0,1.0,69,0.00,,,0.00,Wunderground v.1.15,2013-06-05 05:39:00,
2013-06-05 01:40:00,59.9,49.7,30.10,East,80,1.0,1.0,69,0.00,,,0.00,Wunderground v.1.15,2013-06-05 05:40:00,
2013-06-05 01:43:00,60.0,49.8,30.10,East,80,0.0,1.0,69,0.00,,,0.00,Wunderground v.1.15,2013-06-05 05:43:00,
2013-06-05 01:44:00,59.9,49.3,30.10,East,81,2.0,2.0,68,0.00,,,0.00,Wunderground v.1.15,2013-06-05 05:44:00,
2013-06-05 01:48:00,60.0,49.4,30.10,East,82,2.0,2.0,68,0.00,,,0.00,Wunderground v.1.15,2013-06-05 05:48:00,
2013-06-05 01:49:00,60.1,49.5,30.10,East,82,1.0,2.0,68,0.00,,,0.00,Wunderground v.1.15,2013-06-05 05:49:00,
2013-06-05 01:50:00,60.1,49.5,30.10,East,94,0.0,0.0,68,0.00,,,0.00,Wunderground v.1.15,2013-06-05 05:50:00,
2013-06-05 01:51:00,60.1,49.5,30.10,East,94,1.0,1.0,68,0.00,,,0.00,Wunderground v.1.15,2013-06-05 05:51:00,
2013-06-05 01:54:00,60.2,49.6,30.10,East,94,0.0,1.0,68,0.00,,,0.00,Wunderground v.1.15,2013-06-05 05:54:00,
2013-06-05 01:55:00,60.2,49.2,30.10,East,96,2.0,2.0,67,0.00,,,0.00,Wunderground v.1.15,2013-06-05 05:55:00,
2013-06-05 01:58:00,60.3,49.3,30.10,East,96,1.0,2.0,67,0.00,,,0.00,Wunderground v.1.15,2013-06-05 05:58:00,
2013-06-05 02:00:00,60.4,49.0,30.10,East,100,2.0,2.0,66,0.00,,,0.00,Wunderground v.1.15,2013-06-05 06:00:00,
2013-06-05 02:01:00,60.4,49.0,30.10,East,100,2.0,2.0,66,0.00,,,0.00,Wunderground v.1.15,2013-06-05 06:01:00,
2013-06-05 02:02:00,60.4,49.4,30.11,East,100,2.0,2.0,67,0.00,,,0.00,Wunderground v.1.15,2013-06-05 06:02:00,
2013-06-05 02:03:00,60.5,49.1,30.11,East,100,1.0,2.0,66,0.00,,,0.00,Wunderground v.1.15,2013-06-05 06:03:00,
2013-06-05 02:05:00,60.5,49.1,30.10,East,101,1.0,2.0,66,0.00,,,0.00,Wunderground v.1.15,2013-06-05 06:05:00,
2013-06-05 02:06:00,60.5,49.1,30.10,SSE,150,1.0,2.0,66,0.00,,,0.00,Wunderground v.1.15,2013-06-05 06:06:00,
2013-06-05 02:07:00,60.5,49.1,30.10,East,86,1.0,3.0,66,0.00,,,0.00,Wunderground v.1.15,2013-06-05 06:07:00,
2013-06-05 02:08:00,60.6,49.2,30.10,East,88,2.0,3.0,66,0.00,,,0.00,Wunderground v.1.15,2013-06-05 06:08:00,
2013-06-05 02:09:00,60.5,49.1,30.10,East,89,1.0,3.0,66,0.00,,,0.00,Wunderground v.1.15,2013-06-05 06:09:00,
2013-06-05 02:10:00,60.6,49.2,30.11,East,88,2.0,3.0,66,0.00,,,0.00,Wunderground v.1.15,2013-06-05 06:10:00,
2013-06-05 02:12:00,60.6,49.2,30.10,East,94,1.0,3.0,66,0.00,,,0.00,Wunderground v.1.15,2013-06-05 06:12:00,
2013-06-05 02:13:00,60.6,49.2,30.10,East,94,1.0,3.0,66,0.00,,,0.00,Wunderground v.1.15,2013-06-05 06:13:00,
2013-06-05 02:14:00,60.7,49.3,30.10,East,95,1.0,3.0,66,0.00,,,0.00,Wunderground v.1.15,2013-06-05 06:14:00,
2013-06-05 02:15:00,60.7,49.3,30.10,East,99,0.0,3.0,66,0.00,,,0.00,Wunderground v.1.15,2013-06-05 06:15:00,
2013-06-05 02:18:00,60.7,49.3,30.10,ESE,108,2.0,3.0,66,0.00,,,0.00,Wunderground v.1.15,2013-06-05 06:18:00,
2013-06-05 02:19:00,60.7,48.9,30.10,ESE,106,1.0,3.0,65,0.00,,,0.00,Wunderground v.1.15,2013-06-05 06:19:00,
2013-06-05 02:21:00,60.7,49.3,30.10,ESE,107,1.0,3.0,66,0.00,,,0.00,Wunderground v.1.15,2013-06-05 06:21:00,
2013-06-05 02:23:00,60.8,49.4,30.11,ESE,106,1.0,3.0,66,0.00,,,0.00,Wunderground v.1.15,2013-06-05 06:23:00,
2013-06-05 02:24:00,60.7,49.3,30.11,ESE,106,0.0,3.0,66,0.00,,,0.00,Wunderground v.1.15,2013-06-05 06:24:00,
2013-06-05 02:26:00,60.7,49.3,30.11,ESE,106,0.0,3.0,66,0.00,,,0.00,Wunderground v.1.15,2013-06-05 06:26:00,
2013-06-05 02:28:00,60.8,49.4,30.11,ESE,109,0.0,3.0,66,0.00,,,0.00,Wunderground v.1.15,2013-06-05 06:28:00,
2013-06-05 02:29:00,60.8,49.4,30.11,ESE,109,0.0,3.0,66,0.00,,,0.00,Wunderground v.1.15,2013-06-05 06:29:00,
2013-06-05 02:30:00,60.8,49.0,30.11,ESE,109,1.0,1.0,65,0.00,,,0.00,Wunderground v.1.15,2013-06-05 06:30:00,
2013-06-05 02:32:00,60.8,49.0,30.11,ESE,109,1.0,2.0,65,0.00,,,0.00,Wunderground v.1.15,2013-06-05 06:32:00,
2013-06-05 02:34:00,60.8,49.0,30.11,ESE,113,2.0,3.0,65,0.00,,,0.00,Wunderground v.1.15,2013-06-05 06:34:00,
2013-06-05 02:35:00,60.8,49.4,30.11,ESE,113,1.0,3.0,66,0.00,,,0.00,Wunderground v.1.15,2013-06-05 06:35:00,
2013-06-05 02:37:00,60.8,49.4,30.11,ESE,105,2.0,3.0,66,0.00,,,0.00,Wunderground v.1.15,2013-06-05 06:37:00,
2013-06-05 02:39:00,60.8,49.0,30.11,ESE,107,1.0,3.0,65,0.00,,,0.00,Wunderground v.1.15,2013-06-05 06:39:00,
2013-06-05 02:40:00,60.8,49.4,30.11,ESE,109,1.0,3.0,66,0.00,,,0.00,Wunderground v.1.15,2013-06-05 06:40:00,
2013-06-05 02:42:00,60.8,49.0,30.11,ESE,110,1.0,3.0,65,0.00,,,0.00,Wunderground v.1.15,2013-06-05 06:42:00,
2013-06-05 02:44:00,60.8,49.0,30.11,ESE,111,2.0,3.0,65,0.00,,,0.00,Wunderground v.1.15,2013-06-05 06:44:00,
2013-06-05 02:45:00,60.8,49.0,30.11,ESE,112,2.0,3.0,65,0.00,,,0.00,Wunderground v.1.15,2013-06-05 06:45:00,
2013-06-05 02:49:00,60.8,49.0,30.11,ESE,114,1.0,3.0,65,0.00,,,0.00,Wunderground v.1.15,2013-06-05 06:49:00,
2013-06-05 02:50:00,60.8,49.0,30.11,ESE,115,2.0,2.0,65,0.00,,,0.00,Wunderground v.1.15,2013-06-05 06:50:00,
2013-06-05 02:51:00,60.8,49.0,30.11,ESE,107,2.0,3.0,65,0.00,,,0.00,Wunderground v.1.15,2013-06-05 06:51:00,
2013-06-05 02:54:00,60.8,49.0,30.11,ESE,110,2.0,3.0,65,0.00,,,0.00,Wunderground v.1.15,2013-06-05 06:54:00,
2013-06-05 02:55:00,60.8,49.0,30.11,ESE,108,1.0,3.0,65,0.00,,,0.00,Wunderground v.1.15,2013-06-05 06:55:00,
2013-06-05 02:56:00,60.8,49.4,30.11,ESE,108,1.0,3.0,66,0.00,,,0.00,Wunderground v.1.15,2013-06-05 06:56:00,
2013-06-05 02:59:00,60.8,49.4,30.11,ESE,113,0.0,3.0,66,0.00,,,0.00,Wunderground v.1.15,2013-06-05 06:59:00,
2013-06-05 03:00:00,60.7,49.3,30.11,ESE,113,1.0,2.0,66,0.00,,,0.00,Wunderground v.1.15,2013-06-05 07:00:00,
2013-06-05 03:01:00,60.8,49.4,30.11,ESE,113,2.0,2.0,66,0.00,,,0.00,Wunderground v.1.15,2013-06-05 07:01:00,
2013-06-05 03:02:00,60.8,49.0,30.11,ESE,114,2.0,3.0,65,0.00,,,0.00,Wunderground v.1.15,2013-06-05 07:02:00,
2013-06-05 03:04:00,60.7,48.9,30.11,ESE,114,0.0,3.0,65,0.00,,,0.00,Wunderground v.1.15,2013-06-05 07:04:00,
2013-06-05 03:06:00,60.7,49.3,30.11,ESE,114,1.0,3.0,66,0.00,,,0.00,Wunderground v.1.15,2013-06-05 07:06:00,
2013-06-05 03:08:00,60.7,49.3,30.10,ESE,114,2.0,3.0,66,0.00,,,0.00,Wunderground v.1.15,2013-06-05 07:08:00,
2013-06-05 03:09:00,60.7,49.3,30.10,ESE,115,2.0,4.0,66,0.00,,,0.00,Wunderground v.1.15,2013-06-05 07:09:00,
2013-06-05 03:11:00,60.6,49.2,30.10,ESE,117,3.0,3.0,66,0.00,,,0.00,Wunderground v.1.15,2013-06-05 07:11:00,
2013-06-05 03:13:00,60.6,49.2,30.11,ESE,117,2.0,3.0,66,0.00,,,0.00,Wunderground v.1.15,2013-06-05 07:13:00,
2013-06-05 03:14:00,60.7,48.9,30.11,ESE,114,0.0,6.0,65,0.00,,,0.00,Wunderground v.1.15,2013-06-05 07:14:00,
2013-06-05 03:17:00,60.8,49.0,30.11,ESE,117,2.0,6.0,65,0.00,,,0.00,Wunderground v.1.15,2013-06-05 07:17:00,
2013-06-05 03:19:00,60.8,49.0,30.11,ESE,111,2.0,6.0,65,0.00,,,0.00,Wunderground v.1.15,2013-06-05 07:19:00,
2013-06-05 03:22:00,60.8,48.5,30.11,ESE,116,2.0,4.0,64,0.00,,,0.00,Wunderground v.1.15,2013-06-05 07:22:00,
2013-06-05 03:24:00,60.8,48.5,30.11,ESE,116,2.0,4.0,64,0.00,,,0.00,Wunderground v.1.15,2013-06-05 07:24:00,
2013-06-05 03:27:00,60.8,49.0,30.11,ESE,117,1.0,4.0,65,0.00,,,0.00,Wunderground v.1.15,2013-06-05 07:27:00,
2013-06-05 03:28:00,60.8,49.0,30.11,ESE,117,2.0,4.0,65,0.00,,,0.00,Wunderground v.1.15,2013-06-05 07:28:00,
2013-06-05 03:29:00,60.7,48.4,30.11,ESE,117,2.0,4.0,64,0.00,,,0.00,Wunderground v.1.15,2013-06-05 07:29:00,
2013-06-05 03:30:00,60.7,48.9,30.11,ESE,117,1.0,2.0,65,0.00,,,0.00,Wunderground v.1.15,2013-06-05 07:30:00,
2013-06-05 03:32:00,60.7,48.9,30.11,ESE,117,1.0,2.0,65,0.00,,,0.00,Wunderground v.1.15,2013-06-05 07:32:00,
2013-06-05 03:33:00,60.7,48.9,30.11,ESE,117,0.0,2.0,65,0.00,,,0.00,Wunderground v.1.15,2013-06-05 07:33:00,
2013-06-05 03:34:00,60.7,48.9,30.11,ESE,117,1.0,2.0,65,0.00,,,0.00,Wunderground v.1.15,2013-06-05 07:34:00,
2013-06-05 03:35:00,60.7,48.9,30.11,ESE,117,0.0,2.0,65,0.00,,,0.00,Wunderground v.1.15,2013-06-05 07:35:00,
2013-06-05 03:37:00,60.6,48.8,30.11,ESE,117,2.0,2.0,65,0.00,,,0.00,Wunderground v.1.15,2013-06-05 07:37:00,
2013-06-05 03:38:00,60.6,49.2,30.11,ESE,117,1.0,2.0,66,0.00,,,0.00,Wunderground v.1.15,2013-06-05 07:38:00,
2013-06-05 03:39:00,60.5,49.1,30.11,ESE,117,1.0,2.0,66,0.00,,,0.00,Wunderground v.1.15,2013-06-05 07:39:00,
2013-06-05 03:40:00,60.5,49.1,30.11,ESE,117,1.0,1.0,66,0.00,,,0.00,Wunderground v.1.15,2013-06-05 07:40:00,
2013-06-05 03:42:00,60.4,49.0,30.11,ESE,117,0.0,2.0,66,0.00,,,0.00,Wunderground v.1.15,2013-06-05 07:42:00,
2013-06-05 03:43:00,60.4,49.0,30.11,ESE,117,0.0,2.0,66,0.00,,,0.00,Wunderground v.1.15,2013-06-05 07:43:00,
2013-06-05 03:44:00,60.3,48.9,30.11,ESE,117,1.0,2.0,66,0.00,,,0.00,Wunderground v.1.15,2013-06-05 07:44:00,
2013-06-05 03:45:00,60.3,49.3,30.11,ESE,117,1.0,2.0,67,0.00,,,0.00,Wunderground v.1.15,2013-06-05 07:45:00,
2013-06-05 03:47:00,60.3,49.3,30.11,ESE,117,0.0,2.0,67,0.00,,,0.00,Wunderground v.1.15,2013-06-05 07:47:00,
2013-06-05 03:48:00,60.2,49.2,30.11,ESE,117,1.0,2.0,67,0.00,,,0.00,Wunderground v.1.15,2013-06-05 07:48:00,
2013-06-05 03:49:00,60.2,49.2,30.11,ESE,117,0.0,2.0,67,0.00,,,0.00,Wunderground v.1.15,2013-06-05 07:49:00,
2013-06-05 03:50:00,60.2,49.2,30.11,ESE,117,2.0,2.0,67,0.00,,,0.00,Wunderground v.1.15,2013-06-05 07:50:00,
2013-06-05 03:52:00,60.2,49.6,30.11,ESE,117,1.0,3.0,68,0.00,,,0.00,Wunderground v.1.15,2013-06-05 07:52:00,
2013-06-05 03:53:00,60.2,49.2,30.11,ESE,116,2.0,3.0,67,0.00,,,0.00,Wunderground v.1.15,2013-06-05 07:53:00,
2013-06-05 03:54:00,60.1,49.1,30.11,ESE,116,1.0,3.0,67,0.00,,,0.00,Wunderground v.1.15,2013-06-05 07:54:00,
2013-06-05 03:56:00,60.1,49.1,30.11,ESE,115,1.0,3.0,67,0.00,,,0.00,Wunderground v.1.15,2013-06-05 07:56:00,
2013-06-05 03:57:00,60.1,49.5,30.11,ESE,115,0.0,3.0,68,0.00,,,0.00,Wunderground v.1.15,2013-06-05 07:57:00,
2013-06-05 03:59:00,60.0,49.4,30.11,ESE,115,0.0,3.0,68,0.00,,,0.00,Wunderground v.1.15,2013-06-05 07:59:00,
2013-06-05 04:01:00,60.1,49.5,30.11,ESE,114,2.0,3.0,68,0.00,,,0.00,Wunderground v.1.15,2013-06-05 08:01:00,
2013-06-05 04:02:00,60.1,49.1,30.11,ESE,117,1.0,4.0,67,0.00,,,0.00,Wunderground v.1.15,2013-06-05 08:02:00,
2013-06-05 04:04:00,60.1,49.1,30.11,ESE,116,2.0,4.0,67,0.00,,,0.00,Wunderground v.1.15,2013-06-05 08:04:00,
2013-06-05 04:07:00,60.1,48.7,30.11,ESE,117,1.0,4.0,66,0.00,,,0.00,Wunderground v.1.15,2013-06-05 08:07:00,
2013-06-05 04:09:00,60.1,48.7,30.10,ESE,115,2.0,4.0,66,0.00,,,0.00,Wunderground v.1.15,2013-06-05 08:09:00,
2013-06-05 04:10:00,60.1,48.7,30.10,ESE,117,1.0,2.0,66,0.00,,,0.00,Wunderground v.1.15,2013-06-05 08:10:00,
2013-06-05 04:12:00,60.1,48.7,30.10,ESE,115,0.0,3.0,66,0.00,,,0.00,Wunderground v.1.15,2013-06-05 08:12:00,
2013-06-05 04:28:00,60.0,47.8,30.09,ESE,118,2.0,3.0,64,0.00,,,0.00,Wunderground v.1.15,2013-06-05 08:28:00,
2013-06-05 04:29:00,60.0,47.8,30.10,ESE,115,2.0,4.0,64,0.00,,,0.00,Wunderground v.1.15,2013-06-05 08:29:00,
2013-06-05 04:33:00,59.9,47.7,30.10,ESE,117,2.0,4.0,64,0.00,,,0.00,Wunderground v.1.15,2013-06-05 08:33:00,
2013-06-05 04:34:00,59.9,47.7,30.10,ESE,117,2.0,4.0,64,0.00,,,0.00,Wunderground v.1.15,2013-06-05 08:34:00,
2013-06-05 04:38:00,59.9,47.3,30.10,ESE,115,3.0,4.0,63,0.00,,,0.00,Wunderground v.1.15,2013-06-05 08:38:00,
2013-06-05 04:39:00,59.9,47.3,30.10,ESE,115,2.0,4.0,63,0.00,,,0.00,Wunderground v.1.15,2013-06-05 08:39:00,
2013-06-05 04:43:00,59.9,47.3,30.10,ESE,121,2.0,4.0,63,0.00,,,0.00,Wunderground v.1.15,2013-06-05 08:43:00,
2013-06-05 04:44:00,59.8,47.2,30.10,ESE,121,3.0,4.0,63,0.00,,,0.00,Wunderground v.1.15,2013-06-05 08:44:00,
2013-06-05 04:45:00,59.8,47.2,30.10,ESE,121,0.0,4.0,63,0.00,,,0.00,Wunderground v.1.15,2013-06-05 08:45:00,
2013-06-05 04:48:00,59.7,47.1,30.10,ESE,117,2.0,4.0,63,0.00,,,0.00,Wunderground v.1.15,2013-06-05 08:48:00,
2013-06-05 04:50:00,59.7,46.7,30.10,ESE,115,2.0,2.0,62,0.00,,,0.00,Wunderground v.1.15,2013-06-05 08:50:00,
2013-06-05 04:53:00,59.7,46.7,30.09,ESE,116,4.0,4.0,62,0.00,,,0.00,Wunderground v.1.15,2013-06-05 08:53:00,
2013-06-05 04:55:00,59.7,46.7,30.09,ESE,120,3.0,4.0,62,0.00,,,0.00,Wunderground v.1.15,2013-06-05 08:55:00,
2013-06-05 04:58:00,59.6,46.1,30.09,ESE,118,2.0,4.0,61,0.00,,,0.00,Wunderground v.1.15,2013-06-05 08:58:00,
2013-06-05 05:00:00,59.6,46.1,30.09,ESE,111,4.0,5.0,61,0.00,,,0.00,Wunderground v.1.15,2013-06-05 09:00:00,
2013-06-05 05:01:00,59.6,46.1,30.09,ESE,115,2.0,5.0,61,0.00,,,0.00,Wunderground v.1.15,2013-06-05 09:01:00,
2013-06-05 05:03:00,59.6,46.1,30.09,ESE,114,2.0,5.0,61,0.00,,,0.00,Wunderground v.1.15,2013-06-05 09:03:00,
2013-06-05 05:05:00,59.6,45.7,30.09,ESE,122,2.0,5.0,60,0.00,,,0.00,Wunderground v.1.15,2013-06-05 09:05:00,
2013-06-05 05:06:00,59.6,45.7,30.09,ESE,116,4.0,5.0,60,0.00,,,0.00,Wunderground v.1.15,2013-06-05 09:06:00,
2013-06-05 05:07:00,59.6,45.7,30.09,ESE,117,1.0,5.0,60,0.00,,,0.00,Wunderground v.1.15,2013-06-05 09:07:00,
2013-06-05 05:10:00,59.6,45.2,30.09,ESE,111,1.0,2.0,59,0.00,,,0.00,Wunderground v.1.15,2013-06-05 09:10:00,
2013-06-05 05:11:00,59.6,45.2,30.09,ESE,111,3.0,3.0,59,0.00,,,0.00,Wunderground v.1.15,2013-06-05 09:11:00,
2013-06-05 05:12:00,59.6,45.2,30.09,ESE,117,2.0,4.0,59,0.00,,,0.00,Wunderground v.1.15,2013-06-05 09:12:00,
2013-06-05 05:15:00,59.5,45.2,30.09,ESE,119,2.0,4.0,59,0.00,,,0.00,Wunderground v.1.15,2013-06-05 09:15:00,
2013-06-05 05:16:00,59.5,45.2,30.09,ESE,120,2.0,4.0,59,0.00,,,0.00,Wunderground v.1.15,2013-06-05 09:16:00,
2013-06-05 05:17:00,59.5,45.2,30.09,ESE,121,1.0,4.0,59,0.00,,,0.00,Wunderground v.1.15,2013-06-05 09:17:00,
2013-06-05 05:20:00,59.4,44.6,30.10,SE,124,1.0,3.0,58,0.00,,,0.00,Wunderground v.1.15,2013-06-05 09:20:00,
2013-06-05 05:21:00,59.4,44.6,30.09,ESE,120,4.0,4.0,58,0.00,,,0.00,Wunderground v.1.15,2013-06-05 09:21:00,
2013-06-05 05:22:00,59.4,44.6,30.09,ESE,115,2.0,4.0,58,0.00,,,0.00,Wunderground v.1.15,2013-06-05 09:22:00,
2013-06-05 05:25:00,59.4,44.6,30.09,ESE,118,4.0,5.0,58,0.00,,,0.00,Wunderground v.1.15,2013-06-05 09:25:00,
2013-06-05 05:26:00,59.4,44.6,30.09,ESE,117,2.0,5.0,58,0.00,,,0.00,Wunderground v.1.15,2013-06-05 09:26:00,
2013-06-05 05:27:00,59.4,44.6,30.09,ESE,117,2.0,5.0,58,0.00,,,0.00,Wunderground v.1.15,2013-06-05 09:27:00,
2013-06-05 05:30:00,59.3,44.5,30.10,ESE,119,1.0,4.0,58,0.00,,,0.00,Wunderground v.1.15,2013-06-05 09:30:00,
2013-06-05 05:31:00,59.3,44.5,30.10,ESE,115,1.0,4.0,58,0.00,,,0.00,Wunderground v.1.15,2013-06-05 09:31:00,
2013-06-05 05:32:00,59.3,44.5,30.10,ESE,114,4.0,4.0,58,0.00,,,0.00,Wunderground v.1.15,2013-06-05 09:32:00,
2013-06-05 05:36:00,59.3,44.5,30.09,ESE,115,1.0,5.0,58,0.00,,,0.00,Wunderground v.1.15,2013-06-05 09:36:00,
2013-06-05 05:37:00,59.3,44.5,30.09,ESE,118,1.0,6.0,58,0.00,,,0.00,Wunderground v.1.15,2013-06-05 09:37:00,
2013-06-05 05:41:00,59.3,45.0,30.10,ESE,118,4.0,4.0,59,0.00,,,0.00,Wunderground v.1.15,2013-06-05 09:41:00,
2013-06-05 05:42:00,59.2,44.4,30.09,ESE,115,4.0,4.0,58,0.00,,,0.00,Wunderground v.1.15,2013-06-05 09:42:00,
2013-06-05 05:43:00,59.2,44.4,30.09,ESE,117,2.0,4.0,58,0.00,,,0.00,Wunderground v.1.15,2013-06-05 09:43:00,
2013-06-05 05:46:00,59.2,44.4,30.10,ESE,118,1.0,4.0,58,0.00,,,0.00,Wunderground v.1.15,2013-06-05 09:46:00,
2013-06-05 05:47:00,59.2,44.4,30.09,ESE,117,3.0,5.0,58,0.00,,,0.00,Wunderground v.1.15,2013-06-05 09:47:00,
2013-06-05 05:48:00,59.2,44.4,30.09,ESE,123,2.0,5.0,58,0.00,,,0.00,Wunderground v.1.15,2013-06-05 09:48:00,
2013-06-05 05:51:00,59.3,44.5,30.09,ESE,113,2.0,4.0,58,0.00,,,0.00,Wunderground v.1.15,2013-06-05 09:51:00,
2013-06-05 05:52:00,59.2,44.4,30.09,ESE,117,3.0,4.0,58,0.00,,,0.00,Wunderground v.1.15,2013-06-05 09:52:00,
2013-06-05 05:53:00,59.3,44.5,30.09,ESE,119,1.0,4.0,58,0.00,,,0.00,Wunderground v.1.15,2013-06-05 09:53:00,
2013-06-05 05:56:00,59.2,44.4,30.09,ESE,116,2.0,4.0,58,0.00,,,0.00,Wunderground v.1.15,2013-06-05 09:56:00,
2013-06-05 05:57:00,59.1,44.3,30.09,ESE,115,2.0,4.0,58,0.00,,,0.00,Wunderground v.1.15,2013-06-05 09:57:00,
2013-06-05 05:58:00,59.1,44.3,30.09,ESE,121,3.0,4.0,58,0.00,,,0.00,Wunderground v.1.15,2013-06-05 09:58:00,
2013-06-05 06:02:00,59.1,44.3,30.10,ESE,121,2.0,2.0,58,0.00,,,0.00,Wunderground v.1.15,2013-06-05 10:02:00,
2013-06-05 06:03:00,59.0,44.7,30.10,ESE,119,4.0,4.0,59,0.00,,,0.00,Wunderground v.1.15,2013-06-05 10:03:00,
2013-06-05 06:04:00,59.0,44.7,30.10,ESE,119,2.0,4.0,59,0.00,,,0.00,Wunderground v.1.15,2013-06-05 10:04:00,
2013-06-05 06:07:00,59.1,44.3,30.10,ESE,123,2.0,4.0,58,0.00,,,0.00,Wunderground v.1.15,2013-06-05 10:07:00,
2013-06-05 06:09:00,59.1,44.8,30.10,SE,124,2.0,4.0,59,0.00,,,0.00,Wunderground v.1.15,2013-06-05 10:09:00,
2013-06-05 06:12:00,59.1,44.3,30.11,ESE,123,2.0,3.0,58,0.00,,,0.00,Wunderground v.1.15,2013-06-05 10:12:00,
2013-06-05 06:13:00,59.1,44.3,30.11,ESE,123,1.0,3.0,58,0.00,,,0.00,Wunderground v.1.15,2013-06-05 10:13:00,
2013-06-05 06:14:00,59.1,44.3,30.11,ESE,123,0.0,3.0,58,0.00,,,0.00,Wunderground v.1.15,2013-06-05 10:14:00,
2013-06-05 06:15:00,59.1,44.8,30.11,ESE,121,2.0,3.0,59,0.00,,,0.00,Wunderground v.1.15,2013-06-05 10:15:00,
2013-06-05 06:17:00,59.1,44.3,30.11,ESE,121,1.0,4.0,58,0.00,,,0.00,Wunderground v.1.15,2013-06-05 10:17:00,
2013-06-05 06:18:00,59.1,44.8,30.11,ESE,117,1.0,4.0,59,0.00,,,0.00,Wunderground v.1.15,2013-06-05 10:18:00,
2013-06-05 06:19:00,59.1,44.8,30.11,ESE,119,6.0,6.0,59,0.00,,,0.00,Wunderground v.1.15,2013-06-05 10:19:00,
2013-06-05 06:20:00,59.0,44.7,30.11,ESE,118,3.0,3.0,59,0.00,,,0.00,Wunderground v.1.15,2013-06-05 10:20:00,
2013-06-05 06:22:00,59.0,44.7,30.11,ESE,115,2.0,5.0,59,0.00,,,0.00,Wunderground v.1.15,2013-06-05 10:22:00,
2013-06-05 06:23:00,59.0,44.7,30.11,ESE,115,1.0,5.0,59,0.00,,,0.00,Wunderground v.1.15,2013-06-05 10:23:00,
2013-06-05 06:24:00,59.0,44.7,30.11,ESE,115,2.0,5.0,59,0.00,,,0.00,Wunderground v.1.15,2013-06-05 10:24:00,
2013-06-05 06:25:00,59.0,44.7,30.10,ESE,115,1.0,5.0,59,0.00,,,0.00,Wunderground v.1.15,2013-06-05 10:25:00,
2013-06-05 06:26:00,59.0,44.7,30.10,ESE,117,3.0,5.0,59,0.00,,,0.00,Wunderground v.1.15,2013-06-05 10:26:00,
2013-06-05 06:28:00,59.0,44.7,30.10,ESE,117,1.0,5.0,59,0.00,,,0.00,Wunderground v.1.15,2013-06-05 10:28:00,
2013-06-05 06:30:00,59.0,44.7,30.11,ESE,117,3.0,3.0,59,0.00,,,0.00,Wunderground v.1.15,2013-06-05 10:30:00,
2013-06-05 06:31:00,59.0,44.7,30.11,ESE,116,2.0,3.0,59,0.00,,,0.00,Wunderground v.1.15,2013-06-05 10:31:00,
2013-06-05 06:33:00,59.0,44.7,30.11,ESE,117,3.0,4.0,59,0.00,,,0.00,Wunderground v.1.15,2013-06-05 10:33:00,
2013-06-05 06:35:00,59.0,44.7,30.11,ESE,115,2.0,5.0,59,0.00,,,0.00,Wunderground v.1.15,2013-06-05 10:35:00,
2013-06-05 06:36:00,59.0,44.7,30.11,ESE,115,1.0,5.0,59,0.00,,,0.00,Wunderground v.1.15,2013-06-05 10:36:00,
2013-06-05 06:38:00,59.0,44.7,30.11,ESE,121,2.0,5.0,59,0.00,,,0.00,Wunderground v.1.15,2013-06-05 10:38:00,
2013-06-05 06:40:00,59.0,44.7,30.11,ESE,113,2.0,4.0,59,0.00,,,0.00,Wunderground v.1.15,2013-06-05 10:40:00,
2013-06-05 06:41:00,59.0,44.7,30.10,ESE,115,3.0,4.0,59,0.00,,,0.00,Wunderground v.1.15,2013-06-05 10:41:00,
2013-06-05 06:42:00,58.9,44.6,30.10,ESE,115,2.0,4.0,59,0.00,,,0.00,Wunderground v.1.15,2013-06-05 10:42:00,
2013-06-05 06:43:00,58.9,44.6,30.10,ESE,116,1.0,4.0,59,0.00,,,0.00,Wunderground v.1.15,2013-06-05 10:43:00,
2013-06-05 06:45:00,58.9,44.6,30.10,ESE,116,3.0,4.0,59,0.00,,,0.00,Wunderground v.1.15,2013-06-05 10:45:00,
2013-06-05 06:46:00,58.9,44.6,30.10,ESE,118,3.0,4.0,59,0.00,,,0.00,Wunderground v.1.15,2013-06-05 10:46:00,
2013-06-05 06:47:00,58.9,44.6,30.10,ESE,117,3.0,4.0,59,0.00,,,0.00,Wunderground v.1.15,2013-06-05 10:47:00,
2013-06-05 06:48:00,58.9,44.6,30.10,ESE,117,2.0,4.0,59,0.00,,,0.00,Wunderground v.1.15,2013-06-05 10:48:00,
2013-06-05 06:49:00,58.9,44.6,30.10,ESE,119,3.0,4.0,59,0.00,,,0.00,Wunderground v.1.15,2013-06-05 10:49:00,
2013-06-05 06:50:00,58.8,44.5,30.10,ESE,119,1.0,3.0,59,0.00,,,0.00,Wunderground v.1.15,2013-06-05 10:50:00,
2013-06-05 06:51:00,58.8,44.5,30.11,ESE,116,4.0,5.0,59,0.00,,,0.00,Wunderground v.1.15,2013-06-05 10:51:00,
2013-06-05 06:52:00,58.7,44.4,30.11,ESE,114,2.0,5.0,59,0.00,,,0.00,Wunderground v.1.15,2013-06-05 10:52:00,
2013-06-05 06:53:00,58.7,44.4,30.11,ESE,115,2.0,5.0,59,0.00,,,0.00,Wunderground v.1.15,2013-06-05 10:53:00,
2013-06-05 06:54:00,58.7,44.4,30.11,ESE,119,2.0,5.0,59,0.00,,,0.00,Wunderground v.1.15,2013-06-05 10:54:00,
2013-06-05 06:55:00,58.7,44.4,30.11,ESE,116,4.0,5.0,59,0.00,,,0.00,Wunderground v.1.15,2013-06-05 10:55:00,
2013-06-05 06:56:00,58.7,44.4,30.11,ESE,119,2.0,5.0,59,0.00,,,0.00,Wunderground v.1.15,2013-06-05 10:56:00,
2013-06-05 06:58:00,58.7,44.8,30.10,ESE,121,2.0,5.0,60,0.00,,,0.00,Wunderground v.1.15,2013-06-05 10:58:00,
2013-06-05 06:59:00,58.6,44.8,30.10,ESE,121,2.0,5.0,60,0.00,,,0.00,Wunderground v.1.15,2013-06-05 10:59:00,
2013-06-05 07:00:00,58.7,44.4,30.10,ESE,121,1.0,3.0,59,0.00,,,0.00,Wunderground v.1.15,2013-06-05 11:00:00,
2013-06-05 07:02:00,58.7,44.4,30.10,ESE,121,3.0,5.0,59,0.00,,,0.00,Wunderground v.1.15,2013-06-05 11:02:00,
2013-06-05 07:03:00,58.7,44.8,30.10,ESE,120,2.0,5.0,60,0.00,,,0.00,Wunderground v.1.15,2013-06-05 11:03:00,
2013-06-05 07:04:00,58.7,44.8,30.10,ESE,120,1.0,5.0,60,0.00,,,0.00,Wunderground v.1.15,2013-06-05 11:04:00,
2013-06-05 07:06:00,58.8,44.5,30.11,ESE,117,2.0,5.0,59,0.00,,,0.00,Wunderground v.1.15,2013-06-05 11:06:00,
2013-06-05 07:07:00,58.8,44.5,30.11,ESE,115,2.0,5.0,59,0.00,,,0.00,Wunderground v.1.15,2013-06-05 11:07:00,
2013-06-05 07:08:00,58.8,44.5,30.11,ESE,119,3.0,5.0,59,0.00,,,0.00,Wunderground v.1.15,2013-06-05 11:08:00,
2013-06-05 07:09:00,58.8,44.5,30.11,ESE,119,3.0,5.0,59,0.00,,,0.00,Wunderground v.1.15,2013-06-05 11:09:00,
2013-06-05 07:11:00,58.8,44.5,30.11,ESE,121,1.0,4.0,59,0.00,,,0.00,Wunderground v.1.15,2013-06-05 11:11:00,
2013-06-05 07:12:00,58.8,44.5,30.11,ESE,121,2.0,4.0,59,0.00,,,0.00,Wunderground v.1.15,2013-06-05 11:12:00,
2013-06-05 07:14:00,58.8,44.5,30.11,ESE,121,1.0,5.0,59,0.00,,,0.00,Wunderground v.1.15,2013-06-05 11:14:00,
2013-06-05 07:17:00,58.8,44.5,30.11,ESE,115,4.0,5.0,59,0.00,,,0.00,Wunderground v.1.15,2013-06-05 11:17:00,
2013-06-05 07:19:00,58.8,44.5,30.11,ESE,119,1.0,6.0,59,0.00,,,0.00,Wunderground v.1.15,2013-06-05 11:19:00,
2013-06-05 07:22:00,58.9,44.6,30.11,ESE,123,2.0,4.0,59,0.00,,,0.00,Wunderground v.1.15,2013-06-05 11:22:00,
2013-06-05 07:24:00,58.9,44.6,30.12,ESE,111,2.0,4.0,59,0.00,,,0.00,Wunderground v.1.15,2013-06-05 11:24:00,
2013-06-05 07:25:00,58.9,44.6,30.12,ESE,118,3.0,4.0,59,0.00,,,0.00,Wunderground v.1.15,2013-06-05 11:25:00,
2013-06-05 07:27:00,58.9,44.6,30.12,ESE,123,5.0,5.0,59,0.00,,,0.00,Wunderground v.1.15,2013-06-05 11:27:00,
2013-06-05 07:29:00,58.9,44.6,30.12,ESE,114,3.0,5.0,59,0.00,,,0.00,Wunderground v.1.15,2013-06-05 11:29:00,
2013-06-05 07:30:00,58.9,44.6,30.12,ESE,120,1.0,2.0,59,0.00,,,0.00,Wunderground v.1.15,2013-06-05 11:30:00,
2013-06-05 07:33:00,58.9,44.6,30.12,ESE,119,3.0,5.0,59,0.00,,,0.00,Wunderground v.1.15,2013-06-05 11:33:00,
2013-06-05 07:34:00,59.0,44.7,30.12,SE,132,1.0,5.0,59,0.00,,,0.00,Wunderground v.1.15,2013-06-05 11:34:00,
2013-06-05 07:35:00,59.0,44.7,30.12,SE,125,3.0,5.0,59,0.00,,,0.00,Wunderground v.1.15,2013-06-05 11:35:00,
2013-06-05 07:38:00,59.0,44.7,30.11,ESE,122,1.0,5.0,59,0.00,,,0.00,Wunderground v.1.15,2013-06-05 11:38:00,
2013-06-05 07:39:00,58.9,45.0,30.11,SE,125,1.0,5.0,60,0.00,,,0.00,Wunderground v.1.15,2013-06-05 11:39:00,
2013-06-05 07:40:00,58.9,45.0,30.11,ESE,119,4.0,4.0,60,0.00,,,0.00,Wunderground v.1.15,2013-06-05 11:40:00,
2013-06-05 07:41:00,58.9,45.0,30.11,ESE,121,4.0,5.0,60,0.00,,,0.00,Wunderground v.1.15,2013-06-05 11:41:00,
2013-06-05 07:43:00,59.0,44.7,30.11,ESE,117,3.0,5.0,59,0.00,,,0.00,Wunderground v.1.15,2013-06-05 11:43:00,
2013-06-05 07:44:00,59.0,45.1,30.11,ESE,119,1.0,5.0,60,0.00,,,0.00,Wunderground v.1.15,2013-06-05 11:44:00,
2013-06-05 07:45:00,59.0,45.1,30.12,ESE,119,3.0,5.0,60,0.00,,,0.00,Wunderground v.1.15,2013-06-05 11:45:00,
2013-06-05 07:46:00,59.0,45.1,30.11,ESE,123,2.0,5.0,60,0.00,,,0.00,Wunderground v.1.15,2013-06-05 11:46:00,
2013-06-05 07:48:00,59.0,45.1,30.11,SE,126,0.0,5.0,60,0.00,,,0.00,Wunderground v.1.15,2013-06-05 11:48:00,
2013-06-05 07:49:00,59.0,45.1,30.11,SE,124,3.0,5.0,60,0.00,,,0.00,Wunderground v.1.15,2013-06-05 11:49:00,
2013-06-05 07:50:00,59.0,45.1,30.11,SE,126,3.0,3.0,60,0.00,,,0.00,Wunderground v.1.15,2013-06-05 11:50:00,
2013-06-05 07:51:00,59.0,45.1,30.12,ESE,113,4.0,5.0,60,0.00,,,0.00,Wunderground v.1.15,2013-06-05 11:51:00,
2013-06-05 07:53:00,59.1,45.2,30.11,ESE,114,2.0,5.0,60,0.00,,,0.00,Wunderground v.1.15,2013-06-05 11:53:00,
2013-06-05 07:54:00,59.1,45.7,30.11,ESE,117,2.0,5.0,61,0.00,,,0.00,Wunderground v.1.15,2013-06-05 11:54:00,
2013-06-05 07:55:00,59.1,45.7,30.11,ESE,117,2.0,5.0,61,0.00,,,0.00,Wunderground v.1.15,2013-06-05 11:55:00,
2013-06-05 07:56:00,59.1,45.7,30.11,ESE,118,3.0,5.0,61,0.00,,,0.00,Wunderground v.1.15,2013-06-05 11:56:00,
2013-06-05 07:58:00,59.1,45.2,30.11,ESE,112,3.0,5.0,60,0.00,,,0.00,Wunderground v.1.15,2013-06-05 11:58:00,
2013-06-05 07:59:00,59.2,45.8,30.11,ESE,113,4.0,5.0,61,0.00,,,0.00,Wunderground v.1.15,2013-06-05 11:59:00,
2013-06-05 08:01:00,59.2,45.3,30.11,ESE,117,2.0,5.0,60,0.00,,,0.00,Wunderground v.1.15,2013-06-05 12:01:00,
2013-06-05 08:02:00,59.2,45.3,30.11,ESE,119,3.0,5.0,60,0.00,,,0.00,Wunderground v.1.15,2013-06-05 12:02:00,
2013-06-05 08:03:00,59.3,45.4,30.11,ESE,116,3.0,5.0,60,0.00,,,0.00,Wunderground v.1.15,2013-06-05 12:03:00,
2013-06-05 08:04:00,59.3,45.8,30.11,ESE,116,2.0,5.0,61,0.00,,,0.00,Wunderground v.1.15,2013-06-05 12:04:00,
2013-06-05 08:06:00,59.3,45.4,30.11,ESE,121,2.0,5.0,60,0.00,,,0.00,Wunderground v.1.15,2013-06-05 12:06:00,
2013-06-05 08:07:00,59.3,45.4,30.12,ESE,120,1.0,5.0,60,0.00,,,0.00,Wunderground v.1.15,2013-06-05 12:07:00,
2013-06-05 08:08:00,59.3,45.8,30.11,SE,125,5.0,5.0,61,0.00,,,0.00,Wunderground v.1.15,2013-06-05 12:08:00,
2013-06-05 08:10:00,59.3,45.4,30.11,ESE,117,2.0,3.0,60,0.00,,,0.00,Wunderground v.1.15,2013-06-05 12:10:00,
2013-06-05 08:11:00,59.3,45.4,30.11,ESE,118,2.0,6.0,60,0.00,,,0.00,Wunderground v.1.15,2013-06-05 12:11:00,
2013-06-05 08:12:00,59.3,45.4,30.11,ESE,115,3.0,6.0,60,0.00,,,0.00,Wunderground v.1.15,2013-06-05 12:12:00,
2013-06-05 08:14:00,59.3,45.8,30.11,ESE,118,3.0,6.0,61,0.00,,,0.00,Wunderground v.1.15,2013-06-05 12:14:00,
2013-06-05 08:15:00,59.3,45.8,30.11,SE,128,5.0,6.0,61,0.00,,,0.00,Wunderground v.1.15,2013-06-05 12:15:00,
2013-06-05 08:17:00,59.3,45.8,30.11,ESE,102,3.0,6.0,61,0.00,,,0.00,Wunderground v.1.15,2013-06-05 12:17:00,
2013-06-05 08:19:00,59.3,45.8,30.11,ESE,123,3.0,6.0,61,0.00,,,0.00,Wunderground v.1.15,2013-06-05 12:19:00,
2013-06-05 08:20:00,59.3,45.8,30.10,SE,124,3.0,3.0,61,0.00,,,0.00,Wunderground v.1.15,2013-06-05 12:20:00,
2013-06-05 08:22:00,59.4,46.4,30.10,ESE,113,1.0,4.0,62,0.00,,,0.00,Wunderground v.1.15,2013-06-05 12:22:00,
2013-06-05 08:23:00,59.4,45.9,30.10,ESE,115,5.0,6.0,61,0.00,,,0.00,Wunderground v.1.15,2013-06-05 12:23:00,
2013-06-05 08:24:00,59.4,46.4,30.10,ESE,106,4.0,6.0,62,0.00,,,0.00,Wunderground v.1.15,2013-06-05 12:24:00,
2013-06-05 08:25:00,59.4,45.5,30.10,ESE,109,3.0,6.0,60,0.00,,,0.00,Wunderground v.1.15,2013-06-05 12:25:00,
2013-06-05 08:27:00,59.5,46.5,30.10,ESE,120,2.0,6.0,62,0.00,,,0.00,Wunderground v.1.15,2013-06-05 12:27:00,
2013-06-05 08:28:00,59.5,46.0,30.10,ESE,117,2.0,6.0,61,0.00,,,0.00,Wunderground v.1.15,2013-06-05 12:28:00,
2013-06-05 08:30:00,59.6,46.1,30.10,ESE,115,4.0,4.0,61,0.00,,,0.00,Wunderground v.1.15,2013-06-05 12:30:00,
2013-06-05 08:31:00,59.7,46.2,30.10,ESE,112,3.0,4.0,61,0.00,,,0.00,Wunderground v.1.15,2013-06-05 12:31:00,
2013-06-05 08:32:00,59.7,46.2,30.10,ESE,113,1.0,4.0,61,0.00,,,0.00,Wunderground v.1.15,2013-06-05 12:32:00,
2013-06-05 08:33:00,59.7,46.2,30.10,ESE,118,2.0,4.0,61,0.00,,,0.00,Wunderground v.1.15,2013-06-05 12:33:00,
2013-06-05 08:35:00,59.8,46.3,30.10,ESE,116,3.0,5.0,61,0.00,,,0.00,Wunderground v.1.15,2013-06-05 12:35:00,
2013-06-05 08:36:00,59.8,46.7,30.10,ESE,115,0.0,6.0,62,0.00,,,0.00,Wunderground v.1.15,2013-06-05 12:36:00,
2013-06-05 08:37:00,59.9,46.4,30.10,ESE,117,4.0,6.0,61,0.00,,,0.00,Wunderground v.1.15,2013-06-05 12:37:00,
2013-06-05 08:38:00,59.9,46.4,30.10,ESE,113,3.0,6.0,61,0.00,,,0.00,Wunderground v.1.15,2013-06-05 12:38:00,
2013-06-05 08:39:00,60.0,46.5,30.10,ESE,123,2.0,6.0,61,0.00,,,0.00,Wunderground v.1.15,2013-06-05 12:39:00,
2013-06-05 08:40:00,60.0,46.5,30.10,SE,139,4.0,5.0,61,0.00,,,0.00,Wunderground v.1.15,2013-06-05 12:40:00,
2013-06-05 08:41:00,60.1,46.6,30.10,ESE,120,2.0,5.0,61,0.00,,,0.00,Wunderground v.1.15,2013-06-05 12:41:00,
2013-06-05 08:43:00,60.2,46.7,30.10,SE,126,3.0,5.0,61,0.00,,,0.00,Wunderground v.1.15,2013-06-05 12:43:00,
2013-06-05 08:44:00,60.3,47.6,30.09,ESE,121,3.0,5.0,63,0.00,,,0.00,Wunderground v.1.15,2013-06-05 12:44:00,
2013-06-05 08:45:00,60.3,47.2,30.09,ESE,119,1.0,5.0,62,0.00,,,0.00,Wunderground v.1.15,2013-06-05 12:45:00,
2013-06-05 08:46:00,60.2,46.7,30.09,ESE,115,2.0,5.0,61,0.00,,,0.00,Wunderground v.1.15,2013-06-05 12:46:00,
2013-06-05 08:48:00,60.2,47.1,30.09,ESE,116,3.0,5.0,62,0.00,,,0.00,Wunderground v.1.15,2013-06-05 12:48:00,
2013-06-05 08:49:00,60.2,47.1,30.09,ESE,117,2.0,5.0,62,0.00,,,0.00,Wunderground v.1.15,2013-06-05 12:49:00,
2013-06-05 08:50:00,60.3,47.2,30.10,ESE,115,3.0,4.0,62,0.00,,,0.00,Wunderground v.1.15,2013-06-05 12:50:00,
2013-06-05 08:51:00,60.3,46.8,30.09,ESE,119,2.0,4.0,61,0.00,,,0.00,Wunderground v.1.15,2013-06-05 12:51:00,
2013-06-05 08:54:00,60.3,46.8,30.09,ESE,113,2.0,5.0,61,0.00,,,0.00,Wunderground v.1.15,2013-06-05 12:54:00,
2013-06-05 08:55:00,60.4,46.9,30.09,ESE,117,4.0,5.0,61,0.00,,,0.00,Wunderground v.1.15,2013-06-05 12:55:00,
2013-06-05 08:56:00,60.4,46.4,30.09,ESE,115,3.0,5.0,60,0.00,,,0.00,Wunderground v.1.15,2013-06-05 12:56:00,
2013-06-05 08:57:00,60.5,47.0,30.09,ESE,119,2.0,6.0,61,0.00,,,0.00,Wunderground v.1.15,2013-06-05 12:57:00,
2013-06-05 08:59:00,60.5,47.0,30.09,ESE,113,2.0,6.0,61,0.00,,,0.00,Wunderground v.1.15,2013-06-05 12:59:00,
2013-06-05 09:00:00,60.5,47.4,30.09,ESE,115,1.0,4.0,62,0.00,,,0.00,Wunderground v.1.15,2013-06-05 13:00:00,
2013-06-05 09:02:00,60.5,47.4,30.09,ESE,116,1.0,4.0,62,0.00,,,0.00,Wunderground v.1.15,2013-06-05 13:02:00,
2013-06-05 09:04:00,60.6,47.1,30.09,ESE,115,2.0,4.0,61,0.00,,,0.00,Wunderground v.1.15,2013-06-05 13:04:00,
2013-06-05 09:05:00,60.6,47.5,30.09,ESE,119,2.0,4.0,62,0.00,,,0.00,Wunderground v.1.15,2013-06-05 13:05:00,
2013-06-05 09:07:00,60.7,47.2,30.09,ESE,109,2.0,5.0,61,0.00,,,0.00,Wunderground v.1.15,2013-06-05 13:07:00,
2013-06-05 09:09:00,60.9,47.4,30.09,ESE,118,3.0,5.0,61,0.00,,,0.00,Wunderground v.1.15,2013-06-05 13:09:00,
2013-06-05 09:10:00,60.9,47.8,30.09,ESE,119,2.0,2.0,62,0.00,,,0.00,Wunderground v.1.15,2013-06-05 13:10:00,
2013-06-05 09:12:00,61.0,47.4,30.09,ESE,121,4.0,5.0,61,0.00,,,0.00,Wunderground v.1.15,2013-06-05 13:12:00,
2013-06-05 09:14:00,61.1,47.5,30.09,ESE,119,2.0,5.0,61,0.00,,,0.00,Wunderground v.1.15,2013-06-05 13:14:00,
2013-06-05 09:15:00,61.2,47.6,30.08,ESE,115,2.0,5.0,61,0.00,,,0.00,Wunderground v.1.15,2013-06-05 13:15:00,
2013-06-05 09:16:00,61.4,47.4,30.09,ESE,119,1.0,5.0,60,0.00,,,0.00,Wunderground v.1.15,2013-06-05 13:16:00,
2013-06-05 09:17:00,61.6,48.0,30.08,SE,128,3.0,5.0,61,0.00,,,0.00,Wunderground v.1.15,2013-06-05 13:17:00,
2013-06-05 09:20:00,62.2,48.1,30.09,ESE,120,5.0,5.0,60,0.00,,,0.00,Wunderground v.1.15,2013-06-05 13:20:00,
2013-06-05 09:21:00,62.2,47.7,30.09,ESE,121,1.0,5.0,59,0.00,,,0.00,Wunderground v.1.15,2013-06-05 13:21:00,
2013-06-05 09:22:00,62.2,47.7,30.09,ESE,121,1.0,5.0,59,0.00,,,0.00,Wunderground v.1.15,2013-06-05 13:22:00,
2013-06-05 09:23:00,62.1,48.5,30.09,ESE,121,2.0,5.0,61,0.00,,,0.00,Wunderground v.1.15,2013-06-05 13:23:00,
2013-06-05 09:25:00,62.1,48.0,30.09,ESE,121,0.0,5.0,60,0.00,,,0.00,Wunderground v.1.15,2013-06-05 13:25:00,
2013-06-05 09:27:00,62.0,47.5,30.08,ESE,123,3.0,6.0,59,0.00,,,0.00,Wunderground v.1.15,2013-06-05 13:27:00,
2013-06-05 09:28:00,62.0,47.0,30.08,ESE,113,4.0,6.0,58,0.00,,,0.00,Wunderground v.1.15,2013-06-05 13:28:00,
2013-06-05 09:30:00,61.9,47.4,30.08,ESE,118,3.0,3.0,59,0.00,,,0.00,Wunderground v.1.15,2013-06-05 13:30:00,
2013-06-05 09:32:00,62.0,47.0,30.08,SE,136,3.0,4.0,58,0.00,,,0.00,Wunderground v.1.15,2013-06-05 13:32:00,
2013-06-05 09:33:00,62.1,47.6,30.08,SE,130,3.0,4.0,59,0.00,,,0.00,Wunderground v.1.15,2013-06-05 13:33:00,
2013-06-05 09:35:00,62.8,48.3,30.08,SE,125,3.0,4.0,59,0.00,,,0.00,Wunderground v.1.15,2013-06-05 13:35:00,
2013-06-05 09:37:00,63.2,47.7,30.08,ESE,122,2.0,5.0,57,0.00,,,0.00,Wunderground v.1.15,2013-06-05 13:37:00,
2013-06-05 09:38:00,63.2,48.2,30.08,ESE,123,1.0,5.0,58,0.00,,,0.00,Wunderground v.1.15,2013-06-05 13:38:00,
2013-06-05 09:39:00,63.4,47.4,30.08,ESE,123,4.0,6.0,56,0.00,,,0.00,Wunderground v.1.15,2013-06-05 13:39:00,
2013-06-05 09:40:00,63.4,47.4,30.08,ESE,106,3.0,4.0,56,0.00,,,0.00,Wunderground v.1.15,2013-06-05 13:40:00,
2013-06-05 09:42:00,63.9,48.4,30.07,ESE,114,3.0,5.0,57,0.00,,,0.00,Wunderground v.1.15,2013-06-05 13:42:00,
2013-06-05 09:43:00,63.9,48.4,30.07,ESE,119,3.0,5.0,57,0.00,,,0.00,Wunderground v.1.15,2013-06-05 13:43:00,
2013-06-05 09:44:00,64.0,47.0,30.07,ESE,122,2.0,5.0,54,0.00,,,0.00,Wunderground v.1.15,2013-06-05 13:44:00,
2013-06-05 09:45:00,63.9,46.9,30.07,SE,125,2.0,7.0,54,0.00,,,0.00,Wunderground v.1.15,2013-06-05 13:45:00,
2013-06-05 09:48:00,63.5,47.0,30.07,ESE,121,3.0,7.0,55,0.00,,,0.00,Wunderground v.1.15,2013-06-05 13:48:00,
2013-06-05 09:49:00,63.2,45.8,30.07,ESE,120,1.0,7.0,53,0.00,,,0.00,Wunderground v.1.15,2013-06-05 13:49:00,
2013-06-05 09:50:00,63.2,46.3,30.08,ESE,118,3.0,3.0,54,0.00,,,0.00,Wunderground v.1.15,2013-06-05 13:50:00,
2013-06-05 09:53:00,63.3,46.9,30.07,SE,124,5.0,5.0,55,0.00,,,0.00,Wunderground v.1.15,2013-06-05 13:53:00,
2013-06-05 09:54:00,63.4,46.5,30.07,ESE,111,4.0,5.0,54,0.00,,,0.00,Wunderground v.1.15,2013-06-05 13:54:00,
2013-06-05 09:55:00,63.4,46.9,30.07,ESE,122,3.0,6.0,55,0.00,,,0.00,Wunderground v.1.15,2013-06-05 13:55:00,
2013-06-05 09:56:00,63.4,46.9,30.07,ESE,120,3.0,6.0,55,0.00,,,0.00,Wunderground v.1.15,2013-06-05 13:56:00,
2013-06-05 09:58:00,63.5,46.1,30.08,ESE,122,3.0,6.0,53,0.00,,,0.00,Wunderground v.1.15,2013-06-05 13:58:00,
2013-06-05 09:59:00,63.5,46.1,30.08,ESE,116,0.0,6.0,53,0.00,,,0.00,Wunderground v.1.15,2013-06-05 13:59:00,
2013-06-05 10:00:00,63.6,46.1,30.08,SE,125,6.0,6.0,53,0.00,,,0.00,Wunderground v.1.15,2013-06-05 14:00:00,
2013-06-05 10:02:00,63.7,46.2,30.08,ESE,105,4.0,6.0,53,0.00,,,0.00,Wunderground v.1.15,2013-06-05 14:02:00,
2013-06-05 10:03:00,63.7,45.7,30.07,SE,142,4.0,6.0,52,0.00,,,0.00,Wunderground v.1.15,2013-06-05 14:03:00,
2013-06-05 10:04:00,63.7,45.7,30.07,ESE,117,4.0,6.0,52,0.00,,,0.00,Wunderground v.1.15,2013-06-05 14:04:00,
2013-06-05 10:05:00,63.7,45.2,30.07,ESE,117,6.0,7.0,51,0.00,,,0.00,Wunderground v.1.15,2013-06-05 14:05:00,
2013-06-05 10:07:00,63.7,45.2,30.07,ESE,113,2.0,7.0,51,0.00,,,0.00,Wunderground v.1.15,2013-06-05 14:07:00,
2013-06-05 10:08:00,63.7,46.2,30.07,ESE,121,3.0,7.0,53,0.00,,,0.00,Wunderground v.1.15,2013-06-05 14:08:00,
2013-06-05 10:09:00,63.7,45.7,30.07,ESE,105,5.0,7.0,52,0.00,,,0.00,Wunderground v.1.15,2013-06-05 14:09:00,
2013-06-05 10:12:00,63.7,45.2,30.07,ESE,109,2.0,7.0,51,0.00,,,0.00,Wunderground v.1.15,2013-06-05 14:12:00,
2013-06-05 10:13:00,63.7,45.2,30.07,ESE,120,1.0,7.0,51,0.00,,,0.00,Wunderground v.1.15,2013-06-05 14:13:00,
2013-06-05 10:14:00,63.7,45.2,30.07,SE,128,3.0,7.0,51,0.00,,,0.00,Wunderground v.1.15,2013-06-05 14:14:00,
2013-06-05 10:15:00,63.7,45.2,30.07,ESE,116,1.0,7.0,51,0.00,,,0.00,Wunderground v.1.15,2013-06-05 14:15:00,
2013-06-05 10:17:00,63.8,44.8,30.08,ESE,115,3.0,7.0,50,0.00,,,0.00,Wunderground v.1.15,2013-06-05 14:17:00,
2013-06-05 10:18:00,63.8,45.3,30.08,SE,140,1.0,7.0,51,0.00,,,0.00,Wunderground v.1.15,2013-06-05 14:18:00,
2013-06-05 10:20:00,63.9,44.9,30.08,ESE,114,2.0,3.0,50,0.00,,,0.00,Wunderground v.1.15,2013-06-05 14:20:00,
2013-06-05 10:22:00,64.0,45.0,30.08,ESE,119,1.0,4.0,50,0.00,,,0.00,Wunderground v.1.15,2013-06-05 14:22:00,
2013-06-05 10:23:00,64.0,45.0,30.08,ESE,119,0.0,4.0,50,0.00,,,0.00,Wunderground v.1.15,2013-06-05 14:23:00,
2013-06-05 10:25:00,64.1,46.1,30.08,ESE,119,2.0,4.0,52,0.00,,,0.00,Wunderground v.1.15,2013-06-05 14:25:00,
2013-06-05 10:28:00,64.2,46.2,30.08,ESE,118,2.0,4.0,52,0.00,,,0.00,Wunderground v.1.15,2013-06-05 14:28:00,
2013-06-05 10:29:00,64.2,46.2,30.08,ESE,118,1.0,4.0,52,0.00,,,0.00,Wunderground v.1.15,2013-06-05 14:29:00,
2013-06-05 10:30:00,64.3,47.3,30.07,ESE,115,1.0,2.0,54,0.00,,,0.00,Wunderground v.1.15,2013-06-05 14:30:00,
2013-06-05 10:31:00,64.4,46.9,30.07,ESE,121,4.0,4.0,53,0.00,,,0.00,Wunderground v.1.15,2013-06-05 14:31:00,
2013-06-05 10:33:00,64.5,45.4,30.07,ESE,121,2.0,6.0,50,0.00,,,0.00,Wunderground v.1.15,2013-06-05 14:33:00,
2013-06-05 10:34:00,64.4,45.3,30.07,ESE,119,4.0,6.0,50,0.00,,,0.00,Wunderground v.1.15,2013-06-05 14:34:00,
2013-06-05 10:36:00,64.5,45.4,30.06,ESE,121,3.0,6.0,50,0.00,,,0.00,Wunderground v.1.15,2013-06-05 14:36:00,
2013-06-05 10:37:00,64.6,46.1,30.06,ESE,123,2.0,6.0,51,0.00,,,0.00,Wunderground v.1.15,2013-06-05 14:37:00,
2013-06-05 10:38:00,64.6,45.5,30.06,ESE,118,4.0,6.0,50,0.00,,,0.00,Wunderground v.1.15,2013-06-05 14:38:00,
2013-06-05 10:39:00,64.7,45.6,30.06,SE,140,7.0,7.0,50,0.00,,,0.00,Wunderground v.1.15,2013-06-05 14:39:00,
2013-06-05 10:42:00,64.9,45.3,30.06,SE,128,3.0,4.0,49,0.00,,,0.00,Wunderground v.1.15,2013-06-05 14:42:00,
2013-06-05 10:43:00,65.0,45.9,30.06,ESE,123,1.0,5.0,50,0.00,,,0.00,Wunderground v.1.15,2013-06-05 14:43:00,
2013-06-05 10:44:00,65.1,46.0,30.06,ESE,118,2.0,5.0,50,0.00,,,0.00,Wunderground v.1.15,2013-06-05 14:44:00,
2013-06-05 10:47:00,65.5,46.9,30.06,SE,131,3.0,6.0,51,0.00,,,0.00,Wunderground v.1.15,2013-06-05 14:47:00,
2013-06-05 10:48:00,65.6,46.5,30.06,SE,128,4.0,6.0,50,0.00,,,0.00,Wunderground v.1.15,2013-06-05 14:48:00,
2013-06-05 10:49:00,65.7,46.5,30.06,SE,132,4.0,6.0,50,0.00,,,0.00,Wunderground v.1.15,2013-06-05 14:49:00,
2013-06-05 10:52:00,65.9,46.7,30.06,SE,125,4.0,4.0,50,0.00,,,0.00,Wunderground v.1.15,2013-06-05 14:52:00,
2013-06-05 10:54:00,66.0,47.3,30.06,SE,133,1.0,4.0,51,0.00,,,0.00,Wunderground v.1.15,2013-06-05 14:54:00,
2013-06-05 10:55:00,66.1,46.9,30.06,ESE,115,2.0,5.0,50,0.00,,,0.00,Wunderground v.1.15,2013-06-05 14:55:00,
2013-06-05 10:57:00,66.4,48.2,30.06,ESE,117,4.0,5.0,52,0.00,,,0.00,Wunderground v.1.15,2013-06-05 14:57:00,
2013-06-05 10:58:00,66.5,48.3,30.06,ESE,110,5.0,5.0,52,0.00,,,0.00,Wunderground v.1.15,2013-06-05 14:58:00,
2013-06-05 10:59:00,66.7,46.4,30.06,ESE,114,2.0,7.0,48,0.00,,,0.00,Wunderground v.1.15,2013-06-05 14:59:00,
2013-06-05 11:00:00,66.9,47.1,30.06,SE,132,3.0,3.0,49,0.00,,,0.00,Wunderground v.1.15,2013-06-05 15:00:00,
2013-06-05 11:02:00,67.6,47.8,30.05,ESE,109,4.0,6.0,49,0.00,,,0.00,Wunderground v.1.15,2013-06-05 15:02:00,
2013-06-05 11:03:00,67.7,47.3,30.05,ESE,109,3.0,7.0,48,0.00,,,0.00,Wunderground v.1.15,2013-06-05 15:03:00,
2013-06-05 11:04:00,67.8,47.4,30.05,ESE,121,1.0,7.0,48,0.00,,,0.00,Wunderground v.1.15,2013-06-05 15:04:00,
2013-06-05 11:05:00,67.8,47.4,30.05,ESE,122,2.0,7.0,48,0.00,,,0.00,Wunderground v.1.15,2013-06-05 15:05:00,
2013-06-05 11:07:00,68.1,46.5,30.06,ESE,105,3.0,7.0,46,0.00,,,0.00,Wunderground v.1.15,2013-06-05 15:07:00,
2013-06-05 11:08:00,68.1,46.5,30.06,East,96,4.0,7.0,46,0.00,,,0.00,Wunderground v.1.15,2013-06-05 15:08:00,
2013-06-05 11:10:00,67.9,46.3,30.05,ESE,115,3.0,3.0,46,0.00,,,0.00,Wunderground v.1.15,2013-06-05 15:10:00,
2013-06-05 11:11:00,67.6,45.5,30.05,ESE,119,1.0,6.0,45,0.00,,,0.00,Wunderground v.1.15,2013-06-05 15:11:00,
2013-06-05 11:12:00,67.4,45.3,30.05,ENE,62,5.0,6.0,45,0.00,,,0.00,Wunderground v.1.15,2013-06-05 15:12:00,
2013-06-05 11:14:00,67.4,44.7,30.05,ESE,112,3.0,8.0,44,0.00,,,0.00,Wunderground v.1.15,2013-06-05 15:14:00,
2013-06-05 11:15:00,67.2,45.7,30.05,ESE,118,6.0,8.0,46,0.00,,,0.00,Wunderground v.1.15,2013-06-05 15:15:00,
2013-06-05 11:16:00,67.3,45.2,30.05,ESE,123,4.0,9.0,45,0.00,,,0.00,Wunderground v.1.15,2013-06-05 15:16:00,
2013-06-05 11:17:00,67.6,46.1,30.05,ESE,119,4.0,9.0,46,0.00,,,0.00,Wunderground v.1.15,2013-06-05 15:17:00,
2013-06-05 11:19:00,68.3,47.3,30.05,ESE,117,3.0,9.0,47,0.00,,,0.00,Wunderground v.1.15,2013-06-05 15:19:00,
2013-06-05 11:20:00,68.6,48.1,30.05,SE,128,2.0,6.0,48,0.00,,,0.00,Wunderground v.1.15,2013-06-05 15:20:00,
2013-06-05 11:21:00,69.0,46.8,30.05,ESE,115,4.0,7.0,45,0.00,,,0.00,Wunderground v.1.15,2013-06-05 15:21:00,
2013-06-05 11:22:00,69.1,47.4,30.05,SE,126,2.0,7.0,46,0.00,,,0.00,Wunderground v.1.15,2013-06-05 15:22:00,
2013-06-05 11:24:00,69.3,48.2,30.05,ESE,106,2.0,7.0,47,0.00,,,0.00,Wunderground v.1.15,2013-06-05 15:24:00,
2013-06-05 11:25:00,69.5,47.8,30.05,ESE,115,4.0,7.0,46,0.00,,,0.00,Wunderground v.1.15,2013-06-05 15:25:00,
2013-06-05 11:26:00,69.5,47.8,30.06,SE,124,0.0,7.0,46,0.00,,,0.00,Wunderground v.1.15,2013-06-05 15:26:00,
2013-06-05 11:27:00,69.5,47.8,30.06,ESE,118,0.0,7.0,46,0.00,,,0.00,Wunderground v.1.15,2013-06-05 15:27:00,
2013-06-05 11:29:00,69.9,49.3,30.06,ESE,113,2.0,7.0,48,0.00,,,0.00,Wunderground v.1.15,2013-06-05 15:29:00,
2013-06-05 11:30:00,69.9,48.2,30.06,ESE,103,3.0,5.0,46,0.00,,,0.00,Wunderground v.1.15,2013-06-05 15:30:00,
2013-06-05 11:31:00,69.9,47.0,30.06,East,88,3.0,5.0,44,0.00,,,0.00,Wunderground v.1.15,2013-06-05 15:31:00,
2013-06-05 11:32:00,69.9,48.2,30.06,ESE,111,2.0,6.0,46,0.00,,,0.00,Wunderground v.1.15,2013-06-05 15:32:00,
2013-06-05 11:34:00,70.3,48.5,30.06,ESE,121,3.0,6.0,46,0.00,,,0.00,Wunderground v.1.15,2013-06-05 15:34:00,
2013-06-05 11:35:00,70.4,47.4,30.06,SE,130,1.0,6.0,44,0.00,,,0.00,Wunderground v.1.15,2013-06-05 15:35:00,
2013-06-05 11:36:00,70.6,48.2,30.06,ESE,112,4.0,6.0,45,0.00,,,0.00,Wunderground v.1.15,2013-06-05 15:36:00,
2013-06-05 11:37:00,70.7,48.3,30.06,ESE,107,2.0,6.0,45,0.00,,,0.00,Wunderground v.1.15,2013-06-05 15:37:00,
2013-06-05 11:38:00,70.7,48.3,30.06,ESE,110,1.0,6.0,45,0.00,,,0.00,Wunderground v.1.15,2013-06-05 15:38:00,
2013-06-05 11:40:00,70.6,46.4,30.06,SE,133,3.0,3.0,42,0.00,,,0.00,Wunderground v.1.15,2013-06-05 15:40:00,
2013-06-05 11:42:00,70.5,46.3,30.06,ESE,119,1.0,5.0,42,0.00,,,0.00,Wunderground v.1.15,2013-06-05 15:42:00,
2013-06-05 11:43:00,70.5,46.9,30.05,ESE,119,2.0,6.0,43,0.00,,,0.00,Wunderground v.1.15,2013-06-05 15:43:00,
2013-06-05 11:44:00,70.6,47.0,30.06,ESE,123,3.0,6.0,43,0.00,,,0.00,Wunderground v.1.15,2013-06-05 15:44:00,
2013-06-05 11:45:00,70.6,47.6,30.05,ESE,120,2.0,6.0,44,0.00,,,0.00,Wunderground v.1.15,2013-06-05 15:45:00,
2013-06-05 11:46:00,70.7,47.7,30.05,ESE,119,3.0,6.0,44,0.00,,,0.00,Wunderground v.1.15,2013-06-05 15:46:00,
2013-06-05 11:47:00,70.8,47.2,30.05,ESE,118,4.0,10.0,43,0.00,,,0.00,Wunderground v.1.15,2013-06-05 15:47:00,
2013-06-05 11:48:00,70.8,45.3,30.06,ESE,109,4.0,10.0,40,0.00,,,0.00,Wunderground v.1.15,2013-06-05 15:48:00,
2013-06-05 11:50:00,71.0,47.4,30.06,ESE,121,5.0,5.0,43,0.00,,,0.00,Wunderground v.1.15,2013-06-05 15:50:00,
2013-06-05 11:51:00,71.0,47.4,30.06,SE,128,5.0,7.0,43,0.00,,,0.00,Wunderground v.1.15,2013-06-05 15:51:00,
2013-06-05 11:52:00,71.0,46.7,30.06,East,98,2.0,7.0,42,0.00,,,0.00,Wunderground v.1.15,2013-06-05 15:52:00,
2013-06-05 11:53:00,70.7,47.1,30.06,ESE,119,1.0,7.0,43,0.00,,,0.00,Wunderground v.1.15,2013-06-05 15:53:00,
2013-06-05 11:56:00,70.6,46.4,30.06,ESE,119,3.0,7.0,42,0.00,,,0.00,Wunderground v.1.15,2013-06-05 15:56:00,
2013-06-05 11:57:00,71.0,49.2,30.06,SE,125,1.0,7.0,46,0.00,,,0.00,Wunderground v.1.15,2013-06-05 15:57:00,
2013-06-05 11:58:00,71.0,49.2,30.06,East,98,2.0,7.0,46,0.00,,,0.00,Wunderground v.1.15,2013-06-05 15:58:00,
2013-06-05 12:01:00,71.0,50.3,30.06,ESE,115,3.0,3.0,48,0.00,,,0.00,Wunderground v.1.15,2013-06-05 16:01:00,
2013-06-05 12:02:00,71.3,50.0,30.05,SE,129,4.0,4.0,47,0.00,,,0.00,Wunderground v.1.15,2013-06-05 16:02:00,
2013-06-05 12:03:00,71.4,50.1,30.05,ESE,121,0.0,6.0,47,0.00,,,0.00,Wunderground v.1.15,2013-06-05 16:03:00,
2013-06-05 12:04:00,71.7,49.2,30.05,ESE,121,0.0,6.0,45,0.00,,,0.00,Wunderground v.1.15,2013-06-05 16:04:00,
2013-06-05 12:06:00,71.9,47.6,30.06,SE,135,1.0,6.0,42,0.00,,,0.00,Wunderground v.1.15,2013-06-05 16:06:00,
2013-06-05 12:07:00,71.8,47.5,30.06,SE,133,4.0,6.0,42,0.00,,,0.00,Wunderground v.1.15,2013-06-05 16:07:00,
2013-06-05 12:08:00,71.8,47.5,30.06,SE,138,3.0,6.0,42,0.00,,,0.00,Wunderground v.1.15,2013-06-05 16:08:00,
2013-06-05 12:09:00,71.9,48.8,30.06,SE,138,2.0,6.0,44,0.00,,,0.00,Wunderground v.1.15,2013-06-05 16:09:00,
2013-06-05 12:12:00,72.9,50.3,30.05,SE,126,4.0,5.0,45,0.00,,,0.00,Wunderground v.1.15,2013-06-05 16:12:00,
2013-06-05 12:13:00,72.7,48.9,30.05,ESE,116,2.0,5.0,43,0.00,,,0.00,Wunderground v.1.15,2013-06-05 16:13:00,
2013-06-05 12:14:00,72.7,50.1,30.05,ESE,121,1.0,5.0,45,0.00,,,0.00,Wunderground v.1.15,2013-06-05 16:14:00,
2013-06-05 12:17:00,72.5,48.7,30.05,SE,125,1.0,5.0,43,0.00,,,0.00,Wunderground v.1.15,2013-06-05 16:17:00,
2013-06-05 12:19:00,72.4,49.3,30.05,ESE,115,1.0,5.0,44,0.00,,,0.00,Wunderground v.1.15,2013-06-05 16:19:00,
2013-06-05 12:20:00,72.4,46.7,30.05,ESE,110,2.0,2.0,40,0.00,,,0.00,Wunderground v.1.15,2013-06-05 16:20:00,
2013-06-05 12:22:00,71.8,47.5,30.05,ESE,121,1.0,4.0,42,0.00,,,0.00,Wunderground v.1.15,2013-06-05 16:22:00,
2013-06-05 12:23:00,71.8,46.8,30.05,ESE,121,1.0,4.0,41,0.00,,,0.00,Wunderground v.1.15,2013-06-05 16:23:00,
2013-06-05 12:25:00,71.2,47.6,30.05,ESE,121,1.0,4.0,43,0.00,,,0.00,Wunderground v.1.15,2013-06-05 16:25:00,
2013-06-05 12:27:00,70.9,49.1,30.06,ESE,114,2.0,4.0,46,0.00,,,0.00,Wunderground v.1.15,2013-06-05 16:27:00,
2013-06-05 12:28:00,70.9,47.9,30.06,ESE,115,2.0,4.0,44,0.00,,,0.00,Wunderground v.1.15,2013-06-05 16:28:00,
2013-06-05 12:30:00,71.1,48.7,30.06,ESE,109,3.0,3.0,45,0.00,,,0.00,Wunderground v.1.15,2013-06-05 16:30:00,
2013-06-05 12:31:00,71.2,49.4,30.06,ESE,111,3.0,3.0,46,0.00,,,0.00,Wunderground v.1.15,2013-06-05 16:31:00,
2013-06-05 12:33:00,72.1,49.6,30.06,SE,125,6.0,6.0,45,0.00,,,0.00,Wunderground v.1.15,2013-06-05 16:33:00,
2013-06-05 12:34:00,72.3,49.8,30.06,ESE,121,2.0,6.0,45,0.00,,,0.00,Wunderground v.1.15,2013-06-05 16:34:00,
2013-06-05 12:35:00,72.1,49.0,30.06,ESE,121,1.0,6.0,44,0.00,,,0.00,Wunderground v.1.15,2013-06-05 16:35:00,
2013-06-05 12:36:00,72.2,51.4,30.06,ESE,121,3.0,6.0,48,0.00,,,0.00,Wunderground v.1.15,2013-06-05 16:36:00,
2013-06-05 12:38:00,71.7,47.4,30.06,ESE,119,2.0,6.0,42,0.00,,,0.00,Wunderground v.1.15,2013-06-05 16:38:00,
2013-06-05 12:39:00,71.4,47.7,30.06,ESE,119,2.0,6.0,43,0.00,,,0.00,Wunderground v.1.15,2013-06-05 16:39:00,
2013-06-05 12:41:00,71.0,48.6,30.05,ESE,123,1.0,4.0,45,0.00,,,0.00,Wunderground v.1.15,2013-06-05 16:41:00,
2013-06-05 12:43:00,71.0,48.6,30.05,SE,132,0.0,4.0,45,0.00,,,0.00,Wunderground v.1.15,2013-06-05 16:43:00,
2013-06-05 12:44:00,71.1,51.5,30.05,SE,132,0.0,4.0,50,0.00,,,0.00,Wunderground v.1.15,2013-06-05 16:44:00,
2013-06-05 12:45:00,71.1,50.4,30.05,SE,132,2.0,4.0,48,0.00,,,0.00,Wunderground v.1.15,2013-06-05 16:45:00,
2013-06-05 12:46:00,71.1,48.7,30.05,SE,124,2.0,4.0,45,0.00,,,0.00,Wunderground v.1.15,2013-06-05 16:46:00,
2013-06-05 12:48:00,71.3,51.1,30.05,ESE,119,3.0,5.0,49,0.00,,,0.00,Wunderground v.1.15,2013-06-05 16:48:00,
2013-06-05 12:49:00,71.3,49.4,30.05,ESE,115,1.0,5.0,46,0.00,,,0.00,Wunderground v.1.15,2013-06-05 16:49:00,
2013-06-05 12:50:00,71.3,50.6,30.05,ESE,115,0.0,2.0,48,0.00,,,0.00,Wunderground v.1.15,2013-06-05 16:50:00,
2013-06-05 12:51:00,71.3,50.6,30.05,ESE,115,1.0,2.0,48,0.00,,,0.00,Wunderground v.1.15,2013-06-05 16:51:00,
2013-06-05 12:53:00,71.7,48.0,30.05,ESE,112,0.0,4.0,43,0.00,,,0.00,Wunderground v.1.15,2013-06-05 16:53:00,
2013-06-05 12:54:00,71.8,49.9,30.05,ESE,112,0.0,4.0,46,0.00,,,0.00,Wunderground v.1.15,2013-06-05 16:54:00,
2013-06-05 12:55:00,71.9,49.4,30.05,ESE,112,0.0,4.0,45,0.00,,,0.00,Wunderground v.1.15,2013-06-05 16:55:00,
2013-06-05 12:56:00,72.3,52.1,30.05,ESE,123,2.0,5.0,49,0.00,,,0.00,Wunderground v.1.15,2013-06-05 16:56:00,
2013-06-05 12:58:00,72.7,50.1,30.05,ESE,115,2.0,5.0,45,0.00,,,0.00,Wunderground v.1.15,2013-06-05 16:58:00,
2013-06-05 12:59:00,72.7,49.5,30.05,SE,128,1.0,5.0,44,0.00,,,0.00,Wunderground v.1.15,2013-06-05 16:59:00,
2013-06-05 13:00:00,72.8,49.6,30.05,SE,128,2.0,2.0,44,0.00,,,0.00,Wunderground v.1.15,2013-06-05 17:00:00,
2013-06-05 13:01:00,73.0,49.8,30.05,SE,126,3.0,4.0,44,0.00,,,0.00,Wunderground v.1.15,2013-06-05 17:01:00,
2013-06-05 13:04:00,72.7,48.3,30.05,ESE,119,4.0,7.0,42,0.00,,,0.00,Wunderground v.1.15,2013-06-05 17:04:00,
2013-06-05 13:05:00,72.8,50.2,30.05,ESE,109,2.0,7.0,45,0.00,,,0.00,Wunderground v.1.15,2013-06-05 17:05:00,
2013-06-05 13:06:00,73.0,51.6,30.05,ESE,108,0.0,7.0,47,0.00,,,0.00,Wunderground v.1.15,2013-06-05 17:06:00,
2013-06-05 13:07:00,73.0,51.6,30.05,ESE,108,0.0,7.0,47,0.00,,,0.00,Wunderground v.1.15,2013-06-05 17:07:00,
2013-06-05 13:09:00,73.2,52.3,30.05,ESE,117,0.0,7.0,48,0.00,,,0.00,Wunderground v.1.15,2013-06-05 17:09:00,
2013-06-05 13:10:00,73.2,51.8,30.05,ESE,117,1.0,2.0,47,0.00,,,0.00,Wunderground v.1.15,2013-06-05 17:10:00,
2013-06-05 13:11:00,73.2,51.8,30.05,ESE,108,6.0,7.0,47,0.00,,,0.00,Wunderground v.1.15,2013-06-05 17:11:00,
2013-06-05 13:12:00,73.1,49.3,30.05,SE,144,3.0,7.0,43,0.00,,,0.00,Wunderground v.1.15,2013-06-05 17:12:00,
2013-06-05 13:14:00,73.3,50.1,30.05,ESE,108,3.0,7.0,44,0.00,,,0.00,Wunderground v.1.15,2013-06-05 17:14:00,
2013-06-05 13:15:00,73.5,50.2,30.05,ESE,115,0.0,7.0,44,0.00,,,0.00,Wunderground v.1.15,2013-06-05 17:15:00,
2013-06-05 13:17:00,73.7,49.8,30.05,ESE,112,1.0,7.0,43,0.00,,,0.00,Wunderground v.1.15,2013-06-05 17:17:00,
2013-06-05 13:19:00,73.3,50.7,30.05,SE,125,2.0,7.0,45,0.00,,,0.00,Wunderground v.1.15,2013-06-05 17:19:00,
2013-06-05 13:20:00,73.2,50.6,30.05,ESE,103,3.0,4.0,45,0.00,,,0.00,Wunderground v.1.15,2013-06-05 17:20:00,
2013-06-05 13:22:00,73.3,50.1,30.05,ESE,102,2.0,4.0,44,0.00,,,0.00,Wunderground v.1.15,2013-06-05 17:22:00,
2013-06-05 13:23:00,73.6,50.3,30.05,East,94,3.0,4.0,44,0.00,,,0.00,Wunderground v.1.15,2013-06-05 17:23:00,
2013-06-05 13:24:00,73.6,47.8,30.04,East,92,2.0,7.0,40,0.00,,,0.00,Wunderground v.1.15,2013-06-05 17:24:00,
2013-06-05 13:25:00,73.6,50.9,30.04,East,96,3.0,7.0,45,0.00,,,0.00,Wunderground v.1.15,2013-06-05 17:25:00,
2013-06-05 13:26:00,73.6,50.9,30.04,ENE,60,1.0,7.0,45,0.00,,,0.00,Wunderground v.1.15,2013-06-05 17:26:00,
2013-06-05 13:27:00,73.7,51.6,30.04,ESE,107,3.0,7.0,46,0.00,,,0.00,Wunderground v.1.15,2013-06-05 17:27:00,
2013-06-05 13:28:00,73.7,49.2,30.04,ESE,121,2.0,7.0,42,0.00,,,0.00,Wunderground v.1.15,2013-06-05 17:28:00,
2013-06-05 13:30:00,73.5,49.0,30.04,ESE,123,0.0,4.0,42,0.00,,,0.00,Wunderground v.1.15,2013-06-05 17:30:00,
2013-06-05 13:31:00,73.4,48.9,30.04,ESE,121,2.0,4.0,42,0.00,,,0.00,Wunderground v.1.15,2013-06-05 17:31:00,
2013-06-05 13:32:00,73.4,49.5,30.05,ESE,119,3.0,4.0,43,0.00,,,0.00,Wunderground v.1.15,2013-06-05 17:32:00,
2013-06-05 13:33:00,73.4,47.6,30.04,ENE,75,3.0,4.0,40,0.00,,,0.00,Wunderground v.1.15,2013-06-05 17:33:00,
2013-06-05 13:35:00,73.3,48.8,30.04,ESE,112,3.0,4.0,42,0.00,,,0.00,Wunderground v.1.15,2013-06-05 17:35:00,
2013-06-05 13:36:00,73.3,48.8,30.04,ESE,112,2.0,4.0,42,0.00,,,0.00,Wunderground v.1.15,2013-06-05 17:36:00,
2013-06-05 13:38:00,73.4,49.5,30.04,ESE,108,0.0,5.0,43,0.00,,,0.00,Wunderground v.1.15,2013-06-05 17:38:00,
2013-06-05 13:39:00,73.5,50.9,30.04,ESE,103,0.0,5.0,45,0.00,,,0.00,Wunderground v.1.15,2013-06-05 17:39:00,
2013-06-05 13:41:00,73.4,50.2,30.04,ESE,103,1.0,2.0,44,0.00,,,0.00,Wunderground v.1.15,2013-06-05 17:41:00,
2013-06-05 13:42:00,72.9,49.7,30.04,ESE,103,1.0,2.0,44,0.00,,,0.00,Wunderground v.1.15,2013-06-05 17:42:00,
2013-06-05 13:43:00,72.7,50.7,30.04,East,92,3.0,3.0,46,0.00,,,0.00,Wunderground v.1.15,2013-06-05 17:43:00,
2013-06-05 13:44:00,72.7,49.5,30.04,East,93,1.0,3.0,44,0.00,,,0.00,Wunderground v.1.15,2013-06-05 17:44:00,
2013-06-05 13:46:00,72.8,50.2,30.04,ESE,112,1.0,5.0,45,0.00,,,0.00,Wunderground v.1.15,2013-06-05 17:46:00,
2013-06-05 13:47:00,73.0,51.6,30.04,ESE,104,3.0,5.0,47,0.00,,,0.00,Wunderground v.1.15,2013-06-05 17:47:00,
2013-06-05 13:48:00,73.2,49.4,30.05,ESE,109,3.0,5.0,43,0.00,,,0.00,Wunderground v.1.15,2013-06-05 17:48:00,
2013-06-05 13:49:00,73.2,51.2,30.05,ESE,109,0.0,5.0,46,0.00,,,0.00,Wunderground v.1.15,2013-06-05 17:49:00,
2013-06-05 13:51:00,73.1,50.5,30.05,SSE,155,1.0,2.0,45,0.00,,,0.00,Wunderground v.1.15,2013-06-05 17:51:00,
2013-06-05 13:52:00,73.1,50.5,30.05,SSE,155,0.0,2.0,45,0.00,,,0.00,Wunderground v.1.15,2013-06-05 17:52:00,
2013-06-05 13:54:00,73.4,51.4,30.04,ESE,105,0.0,2.0,46,0.00,,,0.00,Wunderground v.1.15,2013-06-05 17:54:00,
2013-06-05 13:55:00,73.5,51.4,30.04,ESE,102,1.0,2.0,46,0.00,,,0.00,Wunderground v.1.15,2013-06-05 17:55:00,
2013-06-05 13:56:00,73.3,50.7,30.04,ESE,102,0.0,2.0,45,0.00,,,0.00,Wunderground v.1.15,2013-06-05 17:56:00,
2013-06-05 13:57:00,73.3,50.1,30.04,ESE,102,0.0,2.0,44,0.00,,,0.00,Wunderground v.1.15,2013-06-05 17:57:00,
2013-06-05 13:59:00,72.8,52.0,30.04,ESE,102,0.0,2.0,48,0.00,,,0.00,Wunderground v.1.15,2013-06-05 17:59:00,
2013-06-05 14:00:00,72.6,51.8,30.04,ESE,102,1.0,1.0,48,0.00,,,0.00,Wunderground v.1.15,2013-06-05 18:00:00,
2013-06-05 14:02:00,72.5,50.5,30.04,ESE,109,1.0,3.0,46,0.00,,,0.00,Wunderground v.1.15,2013-06-05 18:02:00,
2013-06-05 14:05:00,73.1,50.5,30.04,ESE,109,1.0,3.0,45,0.00,,,0.00,Wunderground v.1.15,2013-06-05 18:05:00,
2013-06-05 14:07:00,73.2,51.2,30.04,ESE,109,0.0,3.0,46,0.00,,,0.00,Wunderground v.1.15,2013-06-05 18:07:00,
2013-06-05 14:08:00,73.2,51.2,30.04,ESE,109,0.0,3.0,46,0.00,,,0.00,Wunderground v.1.15,2013-06-05 18:08:00,
2013-06-05 14:10:00,73.3,48.2,30.04,ESE,109,0.0,1.0,41,0.00,,,0.00,Wunderground v.1.15,2013-06-05 18:10:00,
2013-06-05 14:11:00,73.5,53.7,30.04,ESE,111,1.0,3.0,50,0.00,,,0.00,Wunderground v.1.15,2013-06-05 18:11:00,
2013-06-05 14:12:00,74.0,51.9,30.04,ESE,108,3.0,3.0,46,0.00,,,0.00,Wunderground v.1.15,2013-06-05 18:12:00,
2013-06-05 14:13:00,74.3,51.6,30.04,East,101,1.0,3.0,45,0.00,,,0.00,Wunderground v.1.15,2013-06-05 18:13:00,
2013-06-05 14:15:00,74.1,49.5,30.04,ENE,68,3.0,5.0,42,0.00,,,0.00,Wunderground v.1.15,2013-06-05 18:15:00,
2013-06-05 14:17:00,73.8,47.3,30.04,East,93,0.0,5.0,39,0.00,,,0.00,Wunderground v.1.15,2013-06-05 18:17:00,
2013-06-05 14:19:00,73.6,47.8,30.04,ENE,71,1.0,5.0,40,0.00,,,0.00,Wunderground v.1.15,2013-06-05 18:19:00,
2013-06-05 14:20:00,73.6,49.1,30.04,East,96,2.0,3.0,42,0.00,,,0.00,Wunderground v.1.15,2013-06-05 18:20:00,
2013-06-05 14:22:00,73.5,50.9,30.04,East,99,1.0,4.0,45,0.00,,,0.00,Wunderground v.1.15,2013-06-05 18:22:00,
2013-06-05 14:23:00,73.5,50.9,30.04,East,100,1.0,4.0,45,0.00,,,0.00,Wunderground v.1.15,2013-06-05 18:23:00,
2013-06-05 14:24:00,73.3,48.8,30.04,East,100,2.0,4.0,42,0.00,,,0.00,Wunderground v.1.15,2013-06-05 18:24:00,
2013-06-05 14:25:00,73.1,47.3,30.04,East,101,0.0,4.0,40,0.00,,,0.00,Wunderground v.1.15,2013-06-05 18:25:00,
2013-06-05 14:27:00,73.0,49.8,30.04,East,101,0.0,4.0,44,0.00,,,0.00,Wunderground v.1.15,2013-06-05 18:27:00,
2013-06-05 14:28:00,73.0,49.8,30.04,East,99,1.0,4.0,44,0.00,,,0.00,Wunderground v.1.15,2013-06-05 18:28:00,
2013-06-05 14:30:00,73.0,45.9,30.04,East,99,1.0,4.0,38,0.00,,,0.00,Wunderground v.1.15,2013-06-05 18:30:00,
2013-06-05 14:33:00,73.6,47.8,30.03,ENE,71,1.0,3.0,40,0.00,,,0.00,Wunderground v.1.15,2013-06-05 18:33:00,
2013-06-05 14:34:00,73.7,49.8,30.03,ENE,72,1.0,3.0,43,0.00,,,0.00,Wunderground v.1.15,2013-06-05 18:34:00,
2013-06-05 14:35:00,73.7,49.2,30.03,East,98,2.0,3.0,42,0.00,,,0.00,Wunderground v.1.15,2013-06-05 18:35:00,
2013-06-05 14:36:00,73.6,49.1,30.03,East,98,2.0,3.0,42,0.00,,,0.00,Wunderground v.1.15,2013-06-05 18:36:00,
2013-06-05 14:38:00,73.4,50.8,30.03,ESE,117,1.0,3.0,45,0.00,,,0.00,Wunderground v.1.15,2013-06-05 18:38:00,
2013-06-05 14:39:00,73.3,47.5,30.03,ESE,117,1.0,3.0,40,0.00,,,0.00,Wunderground v.1.15,2013-06-05 18:39:00,
2013-06-05 14:40:00,73.0,47.2,30.03,ESE,117,0.0,1.0,40,0.00,,,0.00,Wunderground v.1.15,2013-06-05 18:40:00,
2013-06-05 14:42:00,73.3,50.1,30.03,East,91,0.0,4.0,44,0.00,,,0.00,Wunderground v.1.15,2013-06-05 18:42:00,
2013-06-05 14:44:00,73.6,50.9,30.03,East,92,1.0,6.0,45,0.00,,,0.00,Wunderground v.1.15,2013-06-05 18:44:00,
2013-06-05 14:46:00,74.0,54.7,30.03,East,94,2.0,6.0,51,0.00,,,0.00,Wunderground v.1.15,2013-06-05 18:46:00,
2013-06-05 14:47:00,74.2,49.0,30.03,ESE,103,0.0,6.0,41,0.00,,,0.00,Wunderground v.1.15,2013-06-05 18:47:00,
2013-06-05 14:49:00,74.9,52.7,30.02,East,92,4.0,6.0,46,0.00,,,0.00,Wunderground v.1.15,2013-06-05 18:49:00,
2013-06-05 14:51:00,74.8,47.5,30.02,East,98,1.0,4.0,38,0.00,,,0.00,Wunderground v.1.15,2013-06-05 18:51:00,
2013-06-05 14:52:00,74.8,48.2,30.02,ENE,67,2.0,4.0,39,0.00,,,0.00,Wunderground v.1.15,2013-06-05 18:52:00,
2013-06-05 14:54:00,72.9,50.3,30.02,NW,324,1.0,5.0,45,0.00,,,0.00,Wunderground v.1.15,2013-06-05 18:54:00,
2013-06-05 14:57:00,69.9,54.0,30.02,West,277,0.0,5.0,57,0.00,,,0.00,Wunderground v.1.15,2013-06-05 18:57:00,
2013-06-05 14:59:00,68.9,52.1,30.02,NW,309,3.0,5.0,55,0.00,,,0.00,Wunderground v.1.15,2013-06-05 18:59:00,
2013-06-05 15:01:00,68.8,51.5,30.02,NW,309,1.0,3.0,54,0.00,,,0.00,Wunderground v.1.15,2013-06-05 19:01:00,
2013-06-05 15:02:00,68.8,53.9,30.02,NNW,333,0.0,3.0,59,0.00,,,0.00,Wunderground v.1.15,2013-06-05 19:02:00,
2013-06-05 15:03:00,68.8,53.9,30.02,NNW,333,1.0,3.0,59,0.00,,,0.00,Wunderground v.1.15,2013-06-05 19:03:00,
2013-06-05 15:05:00,69.0,52.2,30.02,NNW,342,0.0,6.0,55,0.00,,,0.00,Wunderground v.1.15,2013-06-05 19:05:00,
2013-06-05 15:06:00,69.2,53.8,30.02,NNW,342,0.0,6.0,58,0.00,,,0.00,Wunderground v.1.15,2013-06-05 19:06:00,
2013-06-05 15:08:00,70.2,52.3,30.01,North,9,0.0,6.0,53,0.00,,,0.00,Wunderground v.1.15,2013-06-05 19:08:00,
2013-06-05 15:10:00,71.7,53.1,30.01,ENE,74,0.0,1.0,52,0.00,,,0.00,Wunderground v.1.15,2013-06-05 19:10:00,
2013-06-05 15:11:00,71.9,50.6,30.01,NW,319,1.0,4.0,47,0.00,,,0.00,Wunderground v.1.15,2013-06-05 19:11:00,
2013-06-05 15:13:00,71.1,54.6,30.01,NW,319,0.0,4.0,56,0.00,,,0.00,Wunderground v.1.15,2013-06-05 19:13:00,
2013-06-05 15:15:00,70.4,55.4,30.01,NW,319,0.0,4.0,59,0.00,,,0.00,Wunderground v.1.15,2013-06-05 19:15:00,
2013-06-05 15:17:00,68.7,50.4,30.01,NW,319,1.0,4.0,52,0.00,,,0.00,Wunderground v.1.15,2013-06-05 19:17:00,
2013-06-05 15:18:00,67.7,52.4,30.01,NW,319,0.0,4.0,58,0.00,,,0.00,Wunderground v.1.15,2013-06-05 19:18:00,
2013-06-05 15:19:00,67.5,51.2,30.01,NW,319,1.0,4.0,56,0.00,,,0.00,Wunderground v.1.15,2013-06-05 19:19:00,
2013-06-05 15:20:00,66.7,49.5,30.01,NW,319,1.0,2.0,54,0.00,,,0.00,Wunderground v.1.15,2013-06-05 19:20:00,
2013-06-05 15:22:00,67.3,57.6,30.01,NW,319,0.0,2.0,71,0.00,,,0.00,Wunderground v.1.15,2013-06-05 19:22:00,
2013-06-05 15:23:00,67.3,52.5,30.01,NW,319,0.0,2.0,59,0.00,,,0.00,Wunderground v.1.15,2013-06-05 19:23:00,
2013-06-05 15:24:00,67.5,55.3,30.01,NW,319,0.0,2.0,65,0.00,,,0.00,Wunderground v.1.15,2013-06-05 19:24:00,
2013-06-05 15:25:00,67.8,56.0,30.01,NW,319,0.0,3.0,66,0.00,,,0.00,Wunderground v.1.15,2013-06-05 19:25:00,
2013-06-05 15:28:00,67.8,55.2,30.00,NW,319,0.0,3.0,64,0.00,,,0.00,Wunderground v.1.15,2013-06-05 19:28:00,
2013-06-05 15:29:00,68.2,54.7,30.00,NW,319,0.0,3.0,62,0.00,,,0.00,Wunderground v.1.15,2013-06-05 19:29:00,
2013-06-05 15:30:00,68.4,54.4,30.00,North,9,2.0,2.0,61,0.00,,,0.00,Wunderground v.1.15,2013-06-05 19:30:00,
2013-06-05 15:33:00,69.5,52.6,30.00,NE,36,3.0,3.0,55,0.00,,,0.00,Wunderground v.1.15,2013-06-05 19:33:00,
2013-06-05 15:34:00,70.3,53.4,30.00,NE,36,0.0,3.0,55,0.00,,,0.00,Wunderground v.1.15,2013-06-05 19:34:00,
2013-06-05 15:36:00,71.4,53.4,30.00,ENE,63,0.0,3.0,53,0.00,,,0.00,Wunderground v.1.15,2013-06-05 19:36:00,
2013-06-05 15:38:00,73.4,54.2,30.00,North,360,0.0,3.0,51,0.00,,,0.00,Wunderground v.1.15,2013-06-05 19:38:00,
2013-06-05 15:39:00,73.6,54.4,30.00,North,360,1.0,3.0,51,0.00,,,0.00,Wunderground v.1.15,2013-06-05 19:39:00,
2013-06-05 15:40:00,73.1,53.9,30.00,North,360,0.0,1.0,51,0.00,,,0.00,Wunderground v.1.15,2013-06-05 19:40:00,
2013-06-05 15:42:00,72.4,53.2,30.00,North,360,0.0,1.0,51,0.00,,,0.00,Wunderground v.1.15,2013-06-05 19:42:00,
2013-06-05 15:43:00,71.9,54.3,30.00,North,360,0.0,1.0,54,0.00,,,0.00,Wunderground v.1.15,2013-06-05 19:43:00,
2013-06-05 15:44:00,71.8,54.3,30.00,North,360,0.0,1.0,54,0.00,,,0.00,Wunderground v.1.15,2013-06-05 19:44:00,
2013-06-05 15:45:00,71.6,52.5,30.00,NW,304,1.0,4.0,51,0.00,,,0.00,Wunderground v.1.15,2013-06-05 19:45:00,
2013-06-05 15:47:00,71.2,52.1,30.00,East,92,3.0,4.0,51,0.00,,,0.00,Wunderground v.1.15,2013-06-05 19:47:00,
2013-06-05 15:49:00,72.2,54.1,30.00,NE,51,0.0,4.0,53,0.00,,,0.00,Wunderground v.1.15,2013-06-05 19:49:00,
2013-06-05 15:50:00,71.8,53.7,29.99,NE,51,0.0,0.0,53,0.00,,,0.00,Wunderground v.1.15,2013-06-05 19:50:00,
2013-06-05 15:52:00,71.5,50.8,29.99,East,95,1.0,3.0,48,0.00,,,0.00,Wunderground v.1.15,2013-06-05 19:52:00,
2013-06-05 15:54:00,72.4,48.6,29.99,ENE,76,2.0,3.0,43,0.00,,,0.00,Wunderground v.1.15,2013-06-05 19:54:00,
2013-06-05 15:55:00,72.8,49.6,29.99,East,89,2.0,3.0,44,0.00,,,0.00,Wunderground v.1.15,2013-06-05 19:55:00,
2013-06-05 15:56:00,72.9,48.5,29.99,East,90,0.0,3.0,42,0.00,,,0.00,Wunderground v.1.15,2013-06-05 19:56:00,
2013-06-05 15:57:00,73.0,49.2,29.99,East,90,0.0,3.0,43,0.00,,,0.00,Wunderground v.1.15,2013-06-05 19:57:00,
2013-06-05 15:59:00,73.3,50.7,29.99,East,92,0.0,3.0,45,0.00,,,0.00,Wunderground v.1.15,2013-06-05 19:59:00,
2013-06-05 16:00:00,73.6,49.1,29.99,East,90,0.0,1.0,42,0.00,,,0.00,Wunderground v.1.15,2013-06-05 20:00:00,
2013-06-05 16:02:00,73.7,52.2,29.99,East,92,0.0,2.0,47,0.00,,,0.00,Wunderground v.1.15,2013-06-05 20:02:00,
2013-06-05 16:03:00,73.8,50.5,29.99,East,92,3.0,3.0,44,0.00,,,0.00,Wunderground v.1.15,2013-06-05 20:03:00,
2013-06-05 16:04:00,73.6,52.1,29.99,East,87,2.0,4.0,47,0.00,,,0.00,Wunderground v.1.15,2013-06-05 20:04:00,
2013-06-05 16:05:00,73.6,48.4,29.99,East,82,1.0,4.0,41,0.00,,,0.00,Wunderground v.1.15,2013-06-05 20:05:00,
2013-06-05 16:07:00,73.6,48.4,29.99,ENE,69,0.0,4.0,41,0.00,,,0.00,Wunderground v.1.15,2013-06-05 20:07:00,
2013-06-05 16:08:00,73.5,49.0,29.99,ENE,69,3.0,4.0,42,0.00,,,0.00,Wunderground v.1.15,2013-06-05 20:08:00,
2013-06-05 16:09:00,73.4,48.9,29.99,ESE,104,2.0,4.0,42,0.00,,,0.00,Wunderground v.1.15,2013-06-05 20:09:00,
2013-06-05 16:10:00,73.4,50.8,29.99,East,101,1.0,3.0,45,0.00,,,0.00,Wunderground v.1.15,2013-06-05 20:10:00,
2013-06-05 16:11:00,73.4,50.8,29.99,East,101,0.0,3.0,45,0.00,,,0.00,Wunderground v.1.15,2013-06-05 20:11:00,
2013-06-05 16:13:00,73.3,50.7,29.99,East,101,0.0,3.0,45,0.00,,,0.00,Wunderground v.1.15,2013-06-05 20:13:00,
2013-06-05 16:14:00,73.0,51.0,29.99,East,101,1.0,3.0,46,0.00,,,0.00,Wunderground v.1.15,2013-06-05 20:14:00,
2013-06-05 16:15:00,72.8,48.4,29.99,East,88,2.0,3.0,42,0.00,,,0.00,Wunderground v.1.15,2013-06-05 20:15:00,
2013-06-05 16:16:00,72.8,48.4,29.99,East,88,3.0,3.0,42,0.00,,,0.00,Wunderground v.1.15,2013-06-05 20:16:00,
2013-06-05 16:18:00,73.0,47.2,29.99,East,84,1.0,5.0,40,0.00,,,0.00,Wunderground v.1.15,2013-06-05 20:18:00,
2013-06-05 16:19:00,73.1,47.3,29.99,East,84,1.0,5.0,40,0.00,,,0.00,Wunderground v.1.15,2013-06-05 20:19:00,
2013-06-05 16:20:00,73.1,48.0,29.99,SE,130,1.0,1.0,41,0.00,,,0.00,Wunderground v.1.15,2013-06-05 20:20:00,
2013-06-05 16:22:00,73.1,46.7,29.99,ESE,111,1.0,7.0,39,0.00,,,0.00,Wunderground v.1.15,2013-06-05 20:22:00,
2013-06-05 16:24:00,73.0,47.2,29.99,ESE,115,0.0,7.0,40,0.00,,,0.00,Wunderground v.1.15,2013-06-05 20:24:00,
2013-06-05 16:25:00,73.0,49.2,29.99,ESE,115,0.0,7.0,43,0.00,,,0.00,Wunderground v.1.15,2013-06-05 20:25:00,
2013-06-05 16:27:00,72.8,49.0,29.99,ESE,110,0.0,7.0,43,0.00,,,0.00,Wunderground v.1.15,2013-06-05 20:27:00,
2013-06-05 16:29:00,72.6,49.4,29.99,ESE,110,0.0,7.0,44,0.00,,,0.00,Wunderground v.1.15,2013-06-05 20:29:00,
2013-06-05 16:30:00,72.5,51.7,29.99,ESE,110,0.0,1.0,48,0.00,,,0.00,Wunderground v.1.15,2013-06-05 20:30:00,
2013-06-05 16:33:00,72.3,49.8,29.99,NE,48,1.0,2.0,45,0.00,,,0.00,Wunderground v.1.15,2013-06-05 20:33:00,
2013-06-05 16:34:00,72.4,51.0,29.99,NE,48,0.0,2.0,47,0.00,,,0.00,Wunderground v.1.15,2013-06-05 20:34:00,
2013-06-05 16:35:00,72.2,52.0,29.99,NE,48,0.0,2.0,49,0.00,,,0.00,Wunderground v.1.15,2013-06-05 20:35:00,
2013-06-05 16:36:00,71.0,49.7,29.99,NE,48,0.0,2.0,47,0.00,,,0.00,Wunderground v.1.15,2013-06-05 20:36:00,
2013-06-05 16:37:00,70.1,50.6,29.99,WNW,303,2.0,3.0,50,0.00,,,0.00,Wunderground v.1.15,2013-06-05 20:37:00,
2013-06-05 16:38:00,68.7,50.4,29.99,WNW,302,3.0,3.0,52,0.00,,,0.00,Wunderground v.1.15,2013-06-05 20:38:00,
2013-06-05 16:39:00,67.1,51.4,29.99,WNW,298,1.0,4.0,57,0.00,,,0.00,Wunderground v.1.15,2013-06-05 20:39:00,
2013-06-05 16:40:00,66.6,51.4,29.99,WNW,300,0.0,2.0,58,0.00,,,0.00,Wunderground v.1.15,2013-06-05 20:40:00,
2013-06-05 16:41:00,65.9,50.7,29.99,NNW,346,1.0,2.0,58,0.00,,,0.00,Wunderground v.1.15,2013-06-05 20:41:00,
2013-06-05 16:42:00,65.8,50.6,29.99,NNW,342,2.0,2.0,58,0.00,,,0.00,Wunderground v.1.15,2013-06-05 20:42:00,
2013-06-05 16:44:00,65.4,51.1,29.99,NNW,342,0.0,2.0,60,0.00,,,0.00,Wunderground v.1.15,2013-06-05 20:44:00,
2013-06-05 16:45:00,65.2,52.3,29.99,WNW,303,2.0,4.0,63,0.00,,,0.00,Wunderground v.1.15,2013-06-05 20:45:00,
2013-06-05 16:46:00,64.9,51.6,29.99,NNW,333,3.0,7.0,62,0.00,,,0.00,Wunderground v.1.15,2013-06-05 20:46:00,
2013-06-05 16:47:00,64.8,51.5,29.99,NW,311,4.0,7.0,62,0.00,,,0.00,Wunderground v.1.15,2013-06-05 20:47:00,
2013-06-05 16:49:00,64.7,52.7,29.99,WNW,298,3.0,7.0,65,0.00,,,0.00,Wunderground v.1.15,2013-06-05 20:49:00,
2013-06-05 16:50:00,64.5,52.0,30.00,NW,320,3.0,5.0,64,0.00,,,0.00,Wunderground v.1.15,2013-06-05 20:50:00,
2013-06-05 16:51:00,64.4,52.4,30.00,NW,310,2.0,6.0,65,0.00,,,0.00,Wunderground v.1.15,2013-06-05 20:51:00,
2013-06-05 16:52:00,64.3,52.3,30.00,NW,307,9.0,9.0,65,0.00,,,0.00,Wunderground v.1.15,2013-06-05 20:52:00,
2013-06-05 16:55:00,63.7,53.7,29.99,NNW,348,5.0,10.0,70,0.00,,,0.00,Wunderground v.1.15,2013-06-05 20:55:00,
2013-06-05 16:57:00,63.3,54.1,29.99,NNW,346,5.0,10.0,72,0.00,,,0.00,Wunderground v.1.15,2013-06-05 20:57:00,
2013-06-05 17:00:00,63.2,54.0,29.99,NNW,342,10.0,10.0,72,0.00,,,0.00,Wunderground v.1.15,2013-06-05 21:00:00,
2013-06-05 17:01:00,63.1,53.9,29.99,NNW,336,9.0,10.0,72,0.00,,,0.00,Wunderground v.1.15,2013-06-05 21:01:00,
2013-06-05 17:02:00,62.8,53.6,29.99,North,351,3.0,12.0,72,0.00,,,0.00,Wunderground v.1.15,2013-06-05 21:02:00,
2013-06-05 17:03:00,62.7,53.5,29.99,WNW,300,9.0,12.0,72,0.00,,,0.00,Wunderground v.1.15,2013-06-05 21:03:00,
2013-06-05 17:04:00,62.5,53.3,29.99,North,9,0.0,13.0,72,0.00,,,0.00,Wunderground v.1.15,2013-06-05 21:04:00,
2013-06-05 17:06:00,62.3,53.2,29.99,NNW,332,1.0,13.0,72,0.00,,,0.00,Wunderground v.1.15,2013-06-05 21:06:00,
2013-06-05 17:08:00,62.0,52.5,29.99,NNW,338,6.0,13.0,71,0.00,,,0.00,Wunderground v.1.15,2013-06-05 21:08:00,
2013-06-05 17:09:00,62.0,51.7,29.99,North,355,4.0,13.0,69,0.00,,,0.00,Wunderground v.1.15,2013-06-05 21:09:00,
2013-06-05 17:11:00,61.9,51.6,29.99,NW,317,5.0,9.0,69,0.00,,,0.00,Wunderground v.1.15,2013-06-05 21:11:00,
2013-06-05 17:12:00,61.9,51.6,29.99,NNW,330,3.0,9.0,69,0.00,,,0.00,Wunderground v.1.15,2013-06-05 21:12:00,
2013-06-05 17:13:00,61.8,51.9,29.99,WNW,302,4.0,9.0,70,0.00,,,0.00,Wunderground v.1.15,2013-06-05 21:13:00,
2013-06-05 17:14:00,61.8,51.9,29.99,NE,44,2.0,9.0,70,0.00,,,0.00,Wunderground v.1.15,2013-06-05 21:14:00,
2013-06-05 17:16:00,62.0,50.5,29.99,North,355,1.0,9.0,66,0.00,,,0.00,Wunderground v.1.15,2013-06-05 21:16:00,
2013-06-05 17:17:00,62.0,50.9,29.99,NNW,348,5.0,9.0,67,0.00,,,0.00,Wunderground v.1.15,2013-06-05 21:17:00,
2013-06-05 17:18:00,62.0,50.9,29.99,NE,37,3.0,9.0,67,0.00,,,0.00,Wunderground v.1.15,2013-06-05 21:18:00,
2013-06-05 17:19:00,62.0,50.9,29.99,NW,319,4.0,9.0,67,0.00,,,0.00,Wunderground v.1.15,2013-06-05 21:19:00,
2013-06-05 17:21:00,62.1,51.0,29.99,NW,326,3.0,8.0,67,0.00,,,0.00,Wunderground v.1.15,2013-06-05 21:21:00,
2013-06-05 17:22:00,62.2,50.7,29.99,NNE,13,1.0,8.0,66,0.00,,,0.00,Wunderground v.1.15,2013-06-05 21:22:00,
2013-06-05 17:24:00,62.2,51.1,29.99,NNE,18,0.0,10.0,67,0.00,,,0.00,Wunderground v.1.15,2013-06-05 21:24:00,
2013-06-05 17:25:00,62.2,51.1,29.99,North,355,1.0,10.0,67,0.00,,,0.00,Wunderground v.1.15,2013-06-05 21:25:00,
2013-06-05 17:27:00,62.1,50.2,29.99,NNW,333,0.0,10.0,65,0.00,,,0.00,Wunderground v.1.15,2013-06-05 21:27:00,
2013-06-05 17:29:00,62.2,50.7,29.99,North,350,0.0,10.0,66,0.00,,,0.00,Wunderground v.1.15,2013-06-05 21:29:00,
2013-06-05 17:30:00,62.2,50.3,29.99,North,9,2.0,3.0,65,0.00,,,0.00,Wunderground v.1.15,2013-06-05 21:30:00,
2013-06-05 17:32:00,62.8,50.4,29.99,North,355,0.0,6.0,64,0.00,,,0.00,Wunderground v.1.15,2013-06-05 21:32:00,
2013-06-05 17:33:00,62.8,49.6,29.99,North,355,0.0,6.0,62,0.00,,,0.00,Wunderground v.1.15,2013-06-05 21:33:00,
2013-06-05 17:35:00,63.1,50.3,29.99,North,360,3.0,6.0,63,0.00,,,0.00,Wunderground v.1.15,2013-06-05 21:35:00,
2013-06-05 17:37:00,64.0,49.4,29.98,NE,50,0.0,6.0,59,0.00,,,0.00,Wunderground v.1.15,2013-06-05 21:37:00,
2013-06-05 17:38:00,64.0,50.3,29.98,NE,50,0.0,6.0,61,0.00,,,0.00,Wunderground v.1.15,2013-06-05 21:38:00,
2013-06-05 17:40:00,64.4,49.8,29.98,NE,36,0.0,1.0,59,0.00,,,0.00,Wunderground v.1.15,2013-06-05 21:40:00,
2013-06-05 17:43:00,65.0,49.4,29.98,NE,41,1.0,2.0,57,0.00,,,0.00,Wunderground v.1.15,2013-06-05 21:43:00,
2013-06-05 17:45:00,66.0,49.8,29.98,East,81,1.0,4.0,56,0.00,,,0.00,Wunderground v.1.15,2013-06-05 21:45:00,
2013-06-05 17:46:00,66.1,49.0,29.98,East,84,1.0,4.0,54,0.00,,,0.00,Wunderground v.1.15,2013-06-05 21:46:00,
2013-06-05 17:48:00,66.5,49.8,29.98,East,86,0.0,4.0,55,0.00,,,0.00,Wunderground v.1.15,2013-06-05 21:48:00,
2013-06-05 17:50:00,66.7,49.5,29.98,East,86,1.0,2.0,54,0.00,,,0.00,Wunderground v.1.15,2013-06-05 21:50:00,
2013-06-05 17:51:00,66.7,49.5,29.98,East,86,0.0,2.0,54,0.00,,,0.00,Wunderground v.1.15,2013-06-05 21:51:00,
2013-06-05 17:52:00,66.7,49.5,29.98,East,86,0.0,2.0,54,0.00,,,0.00,Wunderground v.1.15,2013-06-05 21:52:00,
2013-06-05 17:53:00,66.8,50.1,29.98,East,84,0.0,2.0,55,0.00,,,0.00,Wunderground v.1.15,2013-06-05 21:53:00,
2013-06-05 17:55:00,65.6,50.0,29.98,East,86,0.0,2.0,57,0.00,,,0.00,Wunderground v.1.15,2013-06-05 21:55:00,
2013-06-05 17:56:00,65.4,49.8,29.98,East,86,0.0,2.0,57,0.00,,,0.00,Wunderground v.1.15,2013-06-05 21:56:00,
2013-06-05 17:57:00,64.6,50.4,29.98,East,86,0.0,2.0,60,0.00,,,0.00,Wunderground v.1.15,2013-06-05 21:57:00,
2013-06-05 17:58:00,64.2,50.5,29.98,East,86,0.0,2.0,61,0.00,,,0.00,Wunderground v.1.15,2013-06-05 21:58:00,
2013-06-05 18:01:00,63.9,49.7,29.98,East,86,0.0,1.0,60,0.00,,,0.00,Wunderground v.1.15,2013-06-05 22:01:00,
2013-06-05 18:02:00,64.0,51.1,29.98,East,86,0.0,1.0,63,0.00,,,0.00,Wunderground v.1.15,2013-06-05 22:02:00,
2013-06-05 18:03:00,63.8,52.2,29.98,East,86,0.0,1.0,66,0.00,,,0.00,Wunderground v.1.15,2013-06-05 22:03:00,
2013-06-05 18:06:00,62.8,50.4,29.98,ENE,78,0.0,2.0,64,0.00,,,0.00,Wunderground v.1.15,2013-06-05 22:06:00,
2013-06-05 18:08:00,61.8,50.3,29.98,ENE,78,0.0,2.0,66,0.00,,,0.00,Wunderground v.1.15,2013-06-05 22:08:00,
2013-06-05 18:10:00,61.1,50.5,29.98,ENE,78,1.0,1.0,68,0.00,,,0.00,Wunderground v.1.15,2013-06-05 22:10:00,
2013-06-05 18:11:00,61.0,50.0,29.97,ENE,78,0.0,1.0,67,0.00,,,0.00,Wunderground v.1.15,2013-06-05 22:11:00,
2013-06-05 18:13:00,61.2,50.9,29.97,NNE,17,2.0,4.0,69,0.00,,,0.00,Wunderground v.1.15,2013-06-05 22:13:00,
2013-06-05 18:14:00,62.2,51.5,29.97,NE,55,0.0,4.0,68,0.00,,,0.00,Wunderground v.1.15,2013-06-05 22:14:00,
2013-06-05 18:15:00,62.7,52.0,29.97,ENE,61,0.0,4.0,68,0.00,,,0.00,Wunderground v.1.15,2013-06-05 22:15:00,
2013-06-05 18:17:00,64.0,51.1,29.97,ENE,61,0.0,4.0,63,0.00,,,0.00,Wunderground v.1.15,2013-06-05 22:17:00,
2013-06-05 18:18:00,64.7,51.4,29.97,ENE,61,0.0,4.0,62,0.00,,,0.00,Wunderground v.1.15,2013-06-05 22:18:00,
2013-06-05 18:19:00,65.5,51.2,29.97,ENE,61,0.0,4.0,60,0.00,,,0.00,Wunderground v.1.15,2013-06-05 22:19:00,
2013-06-05 18:20:00,65.9,51.2,29.97,ENE,61,1.0,1.0,59,0.00,,,0.00,Wunderground v.1.15,2013-06-05 22:20:00,
2013-06-05 18:22:00,66.7,51.0,29.97,ENE,61,0.0,1.0,57,0.00,,,0.00,Wunderground v.1.15,2013-06-05 22:22:00,
2013-06-05 18:23:00,67.0,51.3,29.97,ENE,65,0.0,2.0,57,0.00,,,0.00,Wunderground v.1.15,2013-06-05 22:23:00,
2013-06-05 18:24:00,67.2,50.5,29.97,ENE,65,2.0,2.0,55,0.00,,,0.00,Wunderground v.1.15,2013-06-05 22:24:00,
2013-06-05 18:25:00,67.5,50.8,29.97,ENE,65,0.0,2.0,55,0.00,,,0.00,Wunderground v.1.15,2013-06-05 22:25:00,
2013-06-05 18:27:00,67.8,50.0,29.97,ENE,78,0.0,4.0,53,0.00,,,0.00,Wunderground v.1.15,2013-06-05 22:27:00,
2013-06-05 18:28:00,67.9,51.1,29.97,NE,49,2.0,4.0,55,0.00,,,0.00,Wunderground v.1.15,2013-06-05 22:28:00,
2013-06-05 18:29:00,68.1,50.3,29.97,NE,50,0.0,4.0,53,0.00,,,0.00,Wunderground v.1.15,2013-06-05 22:29:00,
2013-06-05 18:30:00,68.2,50.4,29.97,NE,50,0.0,0.0,53,0.00,,,0.00,Wunderground v.1.15,2013-06-05 22:30:00,
2013-06-05 18:31:00,68.2,50.4,29.97,NE,51,0.0,1.0,53,0.00,,,0.00,Wunderground v.1.15,2013-06-05 22:31:00,
2013-06-05 18:32:00,68.3,50.5,29.97,NE,53,0.0,1.0,53,0.00,,,0.00,Wunderground v.1.15,2013-06-05 22:32:00,
2013-06-05 18:33:00,68.4,49.6,29.97,ENE,58,1.0,2.0,51,0.00,,,0.00,Wunderground v.1.15,2013-06-05 22:33:00,
2013-06-05 18:34:00,68.5,49.7,29.96,East,90,3.0,5.0,51,0.00,,,0.00,Wunderground v.1.15,2013-06-05 22:34:00,
2013-06-05 18:35:00,68.6,49.7,29.96,East,91,3.0,5.0,51,0.00,,,0.00,Wunderground v.1.15,2013-06-05 22:35:00,
2013-06-05 18:36:00,68.6,49.7,29.96,ENE,76,0.0,5.0,51,0.00,,,0.00,Wunderground v.1.15,2013-06-05 22:36:00,
2013-06-05 18:38:00,68.7,49.3,29.96,ENE,78,0.0,5.0,50,0.00,,,0.00,Wunderground v.1.15,2013-06-05 22:38:00,
2013-06-05 18:39:00,68.7,49.3,29.96,ENE,78,0.0,5.0,50,0.00,,,0.00,Wunderground v.1.15,2013-06-05 22:39:00,
2013-06-05 18:40:00,68.8,49.4,29.96,East,80,1.0,3.0,50,0.00,,,0.00,Wunderground v.1.15,2013-06-05 22:40:00,
2013-06-05 18:41:00,68.8,49.9,29.96,East,84,0.0,3.0,51,0.00,,,0.00,Wunderground v.1.15,2013-06-05 22:41:00,
2013-06-05 18:43:00,68.8,49.4,29.96,East,98,1.0,3.0,50,0.00,,,0.00,Wunderground v.1.15,2013-06-05 22:43:00,
2013-06-05 18:44:00,68.8,49.9,29.96,ENE,72,0.0,3.0,51,0.00,,,0.00,Wunderground v.1.15,2013-06-05 22:44:00,
2013-06-05 18:46:00,68.8,49.4,29.96,East,100,1.0,3.0,50,0.00,,,0.00,Wunderground v.1.15,2013-06-05 22:46:00,
2013-06-05 18:47:00,68.8,49.4,29.96,East,101,1.0,3.0,50,0.00,,,0.00,Wunderground v.1.15,2013-06-05 22:47:00,
2013-06-05 18:48:00,68.8,50.5,29.95,East,96,0.0,3.0,52,0.00,,,0.00,Wunderground v.1.15,2013-06-05 22:48:00,
2013-06-05 18:49:00,68.8,49.9,29.95,East,95,2.0,3.0,51,0.00,,,0.00,Wunderground v.1.15,2013-06-05 22:49:00,
2013-06-05 18:50:00,68.8,49.4,29.95,ESE,115,4.0,5.0,50,0.00,,,0.00,Wunderground v.1.15,2013-06-05 22:50:00,
2013-06-05 18:51:00,68.9,49.5,29.95,East,86,2.0,5.0,50,0.00,,,0.00,Wunderground v.1.15,2013-06-05 22:51:00,
2013-06-05 18:52:00,68.9,49.5,29.95,East,87,1.0,5.0,50,0.00,,,0.00,Wunderground v.1.15,2013-06-05 22:52:00,
2013-06-05 18:53:00,69.0,49.6,29.95,East,101,4.0,5.0,50,0.00,,,0.00,Wunderground v.1.15,2013-06-05 22:53:00,
2013-06-05 18:55:00,69.0,49.0,29.95,ESE,111,3.0,5.0,49,0.00,,,0.00,Wunderground v.1.15,2013-06-05 22:55:00,
2013-06-05 18:56:00,69.1,48.6,29.95,East,88,2.0,5.0,48,0.00,,,0.00,Wunderground v.1.15,2013-06-05 22:56:00,
2013-06-05 18:57:00,69.1,49.1,29.95,East,100,0.0,5.0,49,0.00,,,0.00,Wunderground v.1.15,2013-06-05 22:57:00,
2013-06-05 18:58:00,69.1,49.1,29.95,ESE,112,3.0,5.0,49,0.00,,,0.00,Wunderground v.1.15,2013-06-05 22:58:00,
2013-06-05 19:00:00,69.1,49.1,29.95,East,87,1.0,2.0,49,0.00,,,0.00,Wunderground v.1.15,2013-06-05 23:00:00,
2013-06-05 19:01:00,69.1,49.1,29.95,East,87,0.0,2.0,49,0.00,,,0.00,Wunderground v.1.15,2013-06-05 23:01:00,
2013-06-05 19:02:00,69.1,48.6,29.95,ESE,102,1.0,4.0,48,0.00,,,0.00,Wunderground v.1.15,2013-06-05 23:02:00,
2013-06-05 19:04:00,69.0,47.9,29.95,East,87,2.0,5.0,47,0.00,,,0.00,Wunderground v.1.15,2013-06-05 23:04:00,
2013-06-05 19:05:00,69.1,48.0,29.95,East,80,2.0,8.0,47,0.00,,,0.00,Wunderground v.1.15,2013-06-05 23:05:00,
2013-06-05 19:07:00,69.1,47.4,29.95,ESE,107,6.0,8.0,46,0.00,,,0.00,Wunderground v.1.15,2013-06-05 23:07:00,
2013-06-05 19:09:00,69.2,48.1,29.95,ESE,103,1.0,8.0,47,0.00,,,0.00,Wunderground v.1.15,2013-06-05 23:09:00,
2013-06-05 19:10:00,69.1,48.6,29.94,East,88,2.0,2.0,48,0.00,,,0.00,Wunderground v.1.15,2013-06-05 23:10:00,
2013-06-05 19:12:00,69.1,47.4,29.94,East,89,0.0,4.0,46,0.00,,,0.00,Wunderground v.1.15,2013-06-05 23:12:00,
2013-06-05 19:14:00,69.0,47.4,29.94,East,101,2.0,4.0,46,0.00,,,0.00,Wunderground v.1.15,2013-06-05 23:14:00,
2013-06-05 19:16:00,69.0,47.9,29.94,NE,53,3.0,4.0,47,0.00,,,0.00,Wunderground v.1.15,2013-06-05 23:16:00,
2013-06-05 19:17:00,69.0,46.8,29.94,East,96,2.0,4.0,45,0.00,,,0.00,Wunderground v.1.15,2013-06-05 23:17:00,
2013-06-05 19:18:00,69.0,46.8,29.94,East,96,3.0,8.0,45,0.00,,,0.00,Wunderground v.1.15,2013-06-05 23:18:00,
2013-06-05 19:19:00,69.0,46.8,29.94,East,88,3.0,8.0,45,0.00,,,0.00,Wunderground v.1.15,2013-06-05 23:19:00,
2013-06-05 19:20:00,69.0,46.8,29.94,East,86,1.0,2.0,45,0.00,,,0.00,Wunderground v.1.15,2013-06-05 23:20:00,
2013-06-05 19:21:00,69.1,46.9,29.94,East,86,0.0,2.0,45,0.00,,,0.00,Wunderground v.1.15,2013-06-05 23:21:00,
2013-06-05 19:22:00,69.0,46.8,29.94,ENE,74,3.0,6.0,45,0.00,,,0.00,Wunderground v.1.15,2013-06-05 23:22:00,
2013-06-05 19:23:00,69.0,46.8,29.94,ENE,61,0.0,6.0,45,0.00,,,0.00,Wunderground v.1.15,2013-06-05 23:23:00,
2013-06-05 19:24:00,69.0,46.8,29.95,East,86,1.0,6.0,45,0.00,,,0.00,Wunderground v.1.15,2013-06-05 23:24:00,
2013-06-05 19:25:00,69.0,46.8,29.95,ENE,78,0.0,6.0,45,0.00,,,0.00,Wunderground v.1.15,2013-06-05 23:25:00,
2013-06-05 19:26:00,69.0,46.8,29.95,ENE,78,0.0,6.0,45,0.00,,,0.00,Wunderground v.1.15,2013-06-05 23:26:00,
2013-06-05 19:27:00,68.9,46.7,29.94,East,96,2.0,6.0,45,0.00,,,0.00,Wunderground v.1.15,2013-06-05 23:27:00,
2013-06-05 19:28:00,68.9,46.7,29.94,East,93,1.0,6.0,45,0.00,,,0.00,Wunderground v.1.15,2013-06-05 23:28:00,
2013-06-05 19:30:00,68.9,47.3,29.94,East,86,2.0,2.0,46,0.00,,,0.00,Wunderground v.1.15,2013-06-05 23:30:00,
2013-06-05 19:31:00,68.9,46.7,29.94,East,87,0.0,2.0,45,0.00,,,0.00,Wunderground v.1.15,2013-06-05 23:31:00,
2013-06-05 19:33:00,68.8,46.6,29.94,East,86,1.0,2.0,45,0.00,,,0.00,Wunderground v.1.15,2013-06-05 23:33:00,
2013-06-05 19:35:00,68.7,47.1,29.94,East,86,0.0,5.0,46,0.00,,,0.00,Wunderground v.1.15,2013-06-05 23:35:00,
2013-06-05 19:37:00,68.6,46.4,29.95,ENE,61,1.0,5.0,45,0.00,,,0.00,Wunderground v.1.15,2013-06-05 23:37:00,
2013-06-05 19:38:00,68.5,46.9,29.95,ENE,61,0.0,5.0,46,0.00,,,0.00,Wunderground v.1.15,2013-06-05 23:38:00,
2013-06-05 19:39:00,68.5,46.9,29.95,ENE,61,0.0,5.0,46,0.00,,,0.00,Wunderground v.1.15,2013-06-05 23:39:00,
2013-06-05 19:40:00,68.5,46.9,29.95,ENE,75,2.0,2.0,46,0.00,,,0.00,Wunderground v.1.15,2013-06-05 23:40:00,
2013-06-05 19:41:00,68.5,46.3,29.95,East,89,0.0,2.0,45,0.00,,,0.00,Wunderground v.1.15,2013-06-05 23:41:00,
2013-06-05 19:42:00,68.5,46.9,29.95,East,89,0.0,2.0,46,0.00,,,0.00,Wunderground v.1.15,2013-06-05 23:42:00,
2013-06-05 19:43:00,68.5,46.9,29.95,East,89,0.0,2.0,46,0.00,,,0.00,Wunderground v.1.15,2013-06-05 23:43:00,
2013-06-05 19:44:00,68.4,46.8,29.95,East,86,3.0,4.0,46,0.00,,,0.00,Wunderground v.1.15,2013-06-05 23:44:00,
2013-06-05 19:45:00,68.5,46.9,29.95,East,92,2.0,4.0,46,0.00,,,0.00,Wunderground v.1.15,2013-06-05 23:45:00,
2013-06-05 19:46:00,68.5,46.9,29.95,East,97,0.0,4.0,46,0.00,,,0.00,Wunderground v.1.15,2013-06-05 23:46:00,
2013-06-05 19:47:00,68.5,46.3,29.95,East,97,0.0,4.0,45,0.00,,,0.00,Wunderground v.1.15,2013-06-05 23:47:00,
2013-06-05 19:48:00,68.5,46.3,29.95,East,98,5.0,6.0,45,0.00,,,0.00,Wunderground v.1.15,2013-06-05 23:48:00,
2013-06-05 19:50:00,68.5,46.3,29.95,East,91,1.0,1.0,45,0.00,,,0.00,Wunderground v.1.15,2013-06-05 23:50:00,
2013-06-05 19:51:00,68.4,46.2,29.95,ENE,59,5.0,5.0,45,0.00,,,0.00,Wunderground v.1.15,2013-06-05 23:51:00,
2013-06-05 19:52:00,68.4,46.2,29.95,ENE,75,0.0,6.0,45,0.00,,,0.00,Wunderground v.1.15,2013-06-05 23:52:00,
2013-06-05 19:54:00,68.4,46.2,29.95,ESE,104,3.0,6.0,45,0.00,,,0.00,Wunderground v.1.15,2013-06-05 23:54:00,
2013-06-05 19:55:00,68.4,46.2,29.95,ESE,105,3.0,6.0,45,0.00,,,0.00,Wunderground v.1.15,2013-06-05 23:55:00,
2013-06-05 19:56:00,68.4,45.6,29.95,East,92,0.0,6.0,44,0.00,,,0.00,Wunderground v.1.15,2013-06-05 23:56:00,
2013-06-05 19:57:00,68.4,46.2,29.95,East,93,1.0,6.0,45,0.00,,,0.00,Wunderground v.1.15,2013-06-05 23:57:00,
2013-06-05 19:59:00,68.3,46.1,29.95,East,88,2.0,6.0,45,0.00,,,0.00,Wunderground v.1.15,2013-06-05 23:59:00,
2013-06-05 20:00:00,68.3,46.1,29.95,East,97,0.0,2.0,45,0.00,,,0.00,Wunderground v.1.15,2013-06-06 00:00:00,
2013-06-05 20:01:00,68.3,46.7,29.95,East,97,2.0,2.0,46,0.00,,,0.00,Wunderground v.1.15,2013-06-06 00:01:00,
2013-06-05 20:02:00,68.2,46.6,29.95,East,98,3.0,5.0,46,0.00,,,0.00,Wunderground v.1.15,2013-06-06 00:02:00,
2013-06-05 20:03:00,68.1,46.5,29.95,East,98,2.0,5.0,46,0.00,,,0.00,Wunderground v.1.15,2013-06-06 00:03:00,
2013-06-05 20:04:00,68.0,45.9,29.95,East,96,2.0,5.0,45,0.00,,,0.00,Wunderground v.1.15,2013-06-06 00:04:00,
2013-06-05 20:06:00,68.0,45.9,29.95,East,100,3.0,5.0,45,0.00,,,0.00,Wunderground v.1.15,2013-06-06 00:06:00,
2013-06-05 20:07:00,68.0,45.3,29.94,East,88,0.0,5.0,44,0.00,,,0.00,Wunderground v.1.15,2013-06-06 00:07:00,
2013-06-05 20:08:00,68.0,46.4,29.94,East,89,0.0,5.0,46,0.00,,,0.00,Wunderground v.1.15,2013-06-06 00:08:00,
2013-06-05 20:09:00,68.0,45.9,29.94,East,81,2.0,5.0,45,0.00,,,0.00,Wunderground v.1.15,2013-06-06 00:09:00,
2013-06-05 20:11:00,67.9,45.8,29.94,ENE,63,2.0,2.0,45,0.00,,,0.00,Wunderground v.1.15,2013-06-06 00:11:00,
2013-06-05 20:12:00,67.9,45.8,29.94,ESE,107,4.0,4.0,45,0.00,,,0.00,Wunderground v.1.15,2013-06-06 00:12:00,
2013-06-05 20:13:00,67.9,45.2,29.94,East,100,2.0,7.0,44,0.00,,,0.00,Wunderground v.1.15,2013-06-06 00:13:00,
2013-06-05 20:15:00,67.9,45.8,29.95,ESE,105,4.0,9.0,45,0.00,,,0.00,Wunderground v.1.15,2013-06-06 00:15:00,
2013-06-05 20:16:00,67.9,45.8,29.95,East,100,1.0,9.0,45,0.00,,,0.00,Wunderground v.1.15,2013-06-06 00:16:00,
2013-06-05 20:17:00,67.9,45.8,29.94,East,96,2.0,9.0,45,0.00,,,0.00,Wunderground v.1.15,2013-06-06 00:17:00,
2013-06-05 20:18:00,67.8,45.1,29.94,East,80,2.0,9.0,44,0.00,,,0.00,Wunderground v.1.15,2013-06-06 00:18:00,
2013-06-05 20:20:00,67.7,45.6,29.94,East,100,3.0,4.0,45,0.00,,,0.00,Wunderground v.1.15,2013-06-06 00:20:00,
2013-06-05 20:22:00,67.7,45.6,29.94,ESE,111,0.0,5.0,45,0.00,,,0.00,Wunderground v.1.15,2013-06-06 00:22:00,
2013-06-05 20:23:00,67.7,45.0,29.94,East,96,3.0,7.0,44,0.00,,,0.00,Wunderground v.1.15,2013-06-06 00:23:00,
2013-06-05 20:25:00,67.8,45.1,29.94,ENE,71,0.0,7.0,44,0.00,,,0.00,Wunderground v.1.15,2013-06-06 00:25:00,
2013-06-05 20:27:00,67.7,45.6,29.94,East,88,1.0,7.0,45,0.00,,,0.00,Wunderground v.1.15,2013-06-06 00:27:00,
2013-06-05 20:28:00,67.6,45.5,29.94,East,88,0.0,7.0,45,0.00,,,0.00,Wunderground v.1.15,2013-06-06 00:28:00,
2013-06-05 20:29:00,67.6,45.5,29.94,East,97,0.0,7.0,45,0.00,,,0.00,Wunderground v.1.15,2013-06-06 00:29:00,
2013-06-05 20:30:00,67.5,44.8,29.94,East,93,1.0,2.0,44,0.00,,,0.00,Wunderground v.1.15,2013-06-06 00:30:00,
2013-06-05 20:32:00,67.5,44.8,29.94,East,90,3.0,4.0,44,0.00,,,0.00,Wunderground v.1.15,2013-06-06 00:32:00,
2013-06-05 20:33:00,67.5,44.2,29.94,East,92,0.0,4.0,43,0.00,,,0.00,Wunderground v.1.15,2013-06-06 00:33:00,
2013-06-05 20:34:00,67.6,44.3,29.94,East,92,1.0,4.0,43,0.00,,,0.00,Wunderground v.1.15,2013-06-06 00:34:00,
2013-06-05 20:35:00,67.6,44.3,29.94,ENE,74,2.0,7.0,43,0.00,,,0.00,Wunderground v.1.15,2013-06-06 00:35:00,
2013-06-05 20:37:00,67.6,44.3,29.94,East,93,3.0,7.0,43,0.00,,,0.00,Wunderground v.1.15,2013-06-06 00:37:00,
2013-06-05 20:38:00,67.6,44.3,29.94,NE,54,0.0,7.0,43,0.00,,,0.00,Wunderground v.1.15,2013-06-06 00:38:00,
2013-06-05 20:39:00,67.6,44.3,29.94,East,89,4.0,7.0,43,0.00,,,0.00,Wunderground v.1.15,2013-06-06 00:39:00,
2013-06-05 20:40:00,67.6,44.3,29.94,East,80,2.0,3.0,43,0.00,,,0.00,Wunderground v.1.15,2013-06-06 00:40:00,
2013-06-05 20:42:00,67.5,44.2,29.94,East,98,3.0,5.0,43,0.00,,,0.00,Wunderground v.1.15,2013-06-06 00:42:00,
2013-06-05 20:43:00,67.4,44.1,29.94,East,79,0.0,5.0,43,0.00,,,0.00,Wunderground v.1.15,2013-06-06 00:43:00,
2013-06-05 20:45:00,67.4,44.1,29.94,East,92,0.0,5.0,43,0.00,,,0.00,Wunderground v.1.15,2013-06-06 00:45:00,
2013-06-05 20:46:00,67.4,44.1,29.94,East,95,0.0,5.0,43,0.00,,,0.00,Wunderground v.1.15,2013-06-06 00:46:00,
2013-06-05 20:48:00,67.3,44.6,29.95,ESE,105,1.0,5.0,44,0.00,,,0.00,Wunderground v.1.15,2013-06-06 00:48:00,
2013-06-05 20:50:00,67.2,43.9,29.95,East,82,3.0,4.0,43,0.00,,,0.00,Wunderground v.1.15,2013-06-06 00:50:00,
2013-06-05 20:51:00,67.2,44.5,29.95,East,86,2.0,4.0,44,0.00,,,0.00,Wunderground v.1.15,2013-06-06 00:51:00,
2013-06-05 20:54:00,67.1,43.8,29.94,ESE,102,2.0,6.0,43,0.00,,,0.00,Wunderground v.1.15,2013-06-06 00:54:00,
2013-06-05 20:55:00,67.1,43.8,29.95,ESE,109,4.0,6.0,43,0.00,,,0.00,Wunderground v.1.15,2013-06-06 00:55:00,
2013-06-05 20:57:00,67.1,43.8,29.94,ENE,78,0.0,6.0,43,0.00,,,0.00,Wunderground v.1.15,2013-06-06 00:57:00,
2013-06-05 21:00:00,67.0,43.8,29.95,ENE,75,1.0,2.0,43,0.00,,,0.00,Wunderground v.1.15,2013-06-06 01:00:00,
2013-06-05 21:01:00,67.0,43.1,29.94,East,87,0.0,7.0,42,0.00,,,0.00,Wunderground v.1.15,2013-06-06 01:01:00,
2013-06-05 21:02:00,67.0,43.8,29.95,East,88,0.0,7.0,43,0.00,,,0.00,Wunderground v.1.15,2013-06-06 01:02:00,
2013-06-05 21:05:00,66.9,43.7,29.94,East,82,3.0,7.0,43,0.00,,,0.00,Wunderground v.1.15,2013-06-06 01:05:00,
2013-06-05 21:07:00,66.9,43.7,29.94,ESE,107,5.0,7.0,43,0.00,,,0.00,Wunderground v.1.15,2013-06-06 01:07:00,
2013-06-05 21:08:00,66.9,43.0,29.95,East,96,5.0,7.0,42,0.00,,,0.00,Wunderground v.1.15,2013-06-06 01:08:00,
2013-06-05 21:10:00,66.9,43.7,29.94,East,80,0.0,2.0,43,0.00,,,0.00,Wunderground v.1.15,2013-06-06 01:10:00,
2013-06-05 21:12:00,66.7,43.5,29.95,ENE,72,6.0,10.0,43,0.00,,,0.00,Wunderground v.1.15,2013-06-06 01:12:00,
2013-06-05 21:13:00,66.7,43.5,29.95,SE,130,3.0,10.0,43,0.00,,,0.00,Wunderground v.1.15,2013-06-06 01:13:00,
2013-06-05 21:14:00,66.7,43.5,29.95,East,100,3.0,10.0,43,0.00,,,0.00,Wunderground v.1.15,2013-06-06 01:14:00,
2013-06-05 21:15:00,66.7,43.5,29.95,ENE,69,5.0,10.0,43,0.00,,,0.00,Wunderground v.1.15,2013-06-06 01:15:00,
2013-06-05 21:18:00,66.6,43.4,29.95,East,98,3.0,10.0,43,0.00,,,0.00,Wunderground v.1.15,2013-06-06 01:18:00,
2013-06-05 21:19:00,66.6,43.4,29.95,ENE,69,0.0,10.0,43,0.00,,,0.00,Wunderground v.1.15,2013-06-06 01:19:00,
2013-06-05 21:20:00,66.5,43.9,29.95,ENE,69,2.0,2.0,44,0.00,,,0.00,Wunderground v.1.15,2013-06-06 01:20:00,
2013-06-05 21:23:00,66.4,43.2,29.95,East,89,2.0,5.0,43,0.00,,,0.00,Wunderground v.1.15,2013-06-06 01:23:00,
2013-06-05 21:25:00,66.3,43.1,29.95,East,91,0.0,5.0,43,0.00,,,0.00,Wunderground v.1.15,2013-06-06 01:25:00,
2013-06-05 21:28:00,66.2,43.6,29.94,East,96,2.0,5.0,44,0.00,,,0.00,Wunderground v.1.15,2013-06-06 01:28:00,
2013-06-05 21:30:00,66.1,43.5,29.94,East,90,2.0,5.0,44,0.00,,,0.00,Wunderground v.1.15,2013-06-06 01:30:00,
2013-06-05 21:31:00,66.1,43.5,29.94,ESE,107,4.0,5.0,44,0.00,,,0.00,Wunderground v.1.15,2013-06-06 01:31:00,
2013-06-05 21:32:00,66.1,43.5,29.94,ESE,107,0.0,5.0,44,0.00,,,0.00,Wunderground v.1.15,2013-06-06 01:32:00,
2013-06-05 21:33:00,65.9,43.4,29.94,East,90,1.0,5.0,44,0.00,,,0.00,Wunderground v.1.15,2013-06-06 01:33:00,
2013-06-05 21:35:00,65.9,43.4,29.94,East,82,1.0,5.0,44,0.00,,,0.00,Wunderground v.1.15,2013-06-06 01:35:00,
2013-06-05 21:36:00,65.8,43.3,29.94,East,90,1.0,5.0,44,0.00,,,0.00,Wunderground v.1.15,2013-06-06 01:36:00,
2013-06-05 21:37:00,65.8,43.3,29.94,ESE,107,2.0,5.0,44,0.00,,,0.00,Wunderground v.1.15,2013-06-06 01:37:00,
2013-06-05 21:39:00,65.8,43.9,29.94,ESE,111,4.0,5.0,45,0.00,,,0.00,Wunderground v.1.15,2013-06-06 01:39:00,
2013-06-05 21:41:00,65.8,43.9,29.94,ESE,103,1.0,2.0,45,0.00,,,0.00,Wunderground v.1.15,2013-06-06 01:41:00,
2013-06-05 21:42:00,65.7,43.8,29.94,East,80,6.0,6.0,45,0.00,,,0.00,Wunderground v.1.15,2013-06-06 01:42:00,
2013-06-05 21:43:00,65.7,43.2,29.94,ESE,107,1.0,9.0,44,0.00,,,0.00,Wunderground v.1.15,2013-06-06 01:43:00,
2013-06-05 21:44:00,65.7,43.8,29.94,East,86,1.0,9.0,45,0.00,,,0.00,Wunderground v.1.15,2013-06-06 01:44:00,
2013-06-05 21:46:00,65.8,43.3,29.94,East,94,0.0,11.0,44,0.00,,,0.00,Wunderground v.1.15,2013-06-06 01:46:00,
2013-06-05 21:47:00,65.8,43.3,29.94,ESE,110,7.0,11.0,44,0.00,,,0.00,Wunderground v.1.15,2013-06-06 01:47:00,
2013-06-05 21:48:00,65.8,43.3,29.95,ENE,63,0.0,11.0,44,0.00,,,0.00,Wunderground v.1.15,2013-06-06 01:48:00,
2013-06-05 21:49:00,65.7,43.8,29.95,East,89,1.0,11.0,45,0.00,,,0.00,Wunderground v.1.15,2013-06-06 01:49:00,
2013-06-05 21:52:00,65.6,43.7,29.95,East,93,0.0,3.0,45,0.00,,,0.00,Wunderground v.1.15,2013-06-06 01:52:00,
2013-06-05 21:53:00,65.5,43.6,29.95,ESE,105,3.0,3.0,45,0.00,,,0.00,Wunderground v.1.15,2013-06-06 01:53:00,
2013-06-05 21:55:00,65.5,43.6,29.95,East,84,2.0,6.0,45,0.00,,,0.00,Wunderground v.1.15,2013-06-06 01:55:00,
2013-06-05 21:57:00,65.5,43.6,29.95,East,85,3.0,6.0,45,0.00,,,0.00,Wunderground v.1.15,2013-06-06 01:57:00,
2013-06-05 21:58:00,65.5,43.6,29.95,East,90,1.0,6.0,45,0.00,,,0.00,Wunderground v.1.15,2013-06-06 01:58:00,
2013-06-05 21:59:00,65.4,43.5,29.95,ENE,61,3.0,6.0,45,0.00,,,0.00,Wunderground v.1.15,2013-06-06 01:59:00,
2013-06-05 22:00:00,65.4,43.5,29.95,ESE,105,3.0,3.0,45,0.00,,,0.00,Wunderground v.1.15,2013-06-06 02:00:00,
2013-06-05 22:02:00,65.4,43.5,29.95,SE,144,3.0,9.0,45,0.00,,,0.00,Wunderground v.1.15,2013-06-06 02:02:00,
2013-06-05 22:03:00,65.4,43.5,29.95,ESE,108,2.0,9.0,45,0.00,,,0.00,Wunderground v.1.15,2013-06-06 02:03:00,
2013-06-05 22:04:00,65.4,44.1,29.95,ESE,117,1.0,9.0,46,0.00,,,0.00,Wunderground v.1.15,2013-06-06 02:04:00,
2013-06-05 22:05:00,65.4,44.1,29.95,ESE,113,5.0,9.0,46,0.00,,,0.00,Wunderground v.1.15,2013-06-06 02:05:00,
2013-06-05 22:07:00,65.3,44.0,29.95,ESE,104,2.0,9.0,46,0.00,,,0.00,Wunderground v.1.15,2013-06-06 02:07:00,
2013-06-05 22:08:00,65.3,43.4,29.95,East,93,2.0,9.0,45,0.00,,,0.00,Wunderground v.1.15,2013-06-06 02:08:00,
2013-06-05 22:09:00,65.2,43.9,29.95,East,82,2.0,9.0,46,0.00,,,0.00,Wunderground v.1.15,2013-06-06 02:09:00,
2013-06-05 22:10:00,65.3,43.4,29.95,ESE,104,4.0,4.0,45,0.00,,,0.00,Wunderground v.1.15,2013-06-06 02:10:00,
2013-06-05 22:12:00,65.2,43.9,29.95,East,97,0.0,5.0,46,0.00,,,0.00,Wunderground v.1.15,2013-06-06 02:12:00,
2013-06-05 22:13:00,65.2,43.9,29.95,East,96,2.0,5.0,46,0.00,,,0.00,Wunderground v.1.15,2013-06-06 02:13:00,
2013-06-05 22:14:00,65.2,43.9,29.95,ESE,102,3.0,5.0,46,0.00,,,0.00,Wunderground v.1.15,2013-06-06 02:14:00,
2013-06-05 22:15:00,65.2,43.9,29.95,ESE,121,2.0,5.0,46,0.00,,,0.00,Wunderground v.1.15,2013-06-06 02:15:00,
2013-06-05 22:17:00,65.2,43.3,29.95,East,100,1.0,5.0,45,0.00,,,0.00,Wunderground v.1.15,2013-06-06 02:17:00,
2013-06-05 22:18:00,65.2,43.3,29.95,ESE,122,4.0,5.0,45,0.00,,,0.00,Wunderground v.1.15,2013-06-06 02:18:00,
2013-06-05 22:20:00,65.2,43.9,29.95,East,85,1.0,3.0,46,0.00,,,0.00,Wunderground v.1.15,2013-06-06 02:20:00,
2013-06-05 22:21:00,65.2,43.9,29.95,ESE,113,4.0,4.0,46,0.00,,,0.00,Wunderground v.1.15,2013-06-06 02:21:00,
2013-06-05 22:22:00,65.2,43.3,29.95,ESE,110,4.0,9.0,45,0.00,,,0.00,Wunderground v.1.15,2013-06-06 02:22:00,
2013-06-05 22:23:00,65.2,43.9,29.95,ESE,111,3.0,9.0,46,0.00,,,0.00,Wunderground v.1.15,2013-06-06 02:23:00,
2013-06-05 22:25:00,65.2,43.9,29.95,ESE,116,0.0,9.0,46,0.00,,,0.00,Wunderground v.1.15,2013-06-06 02:25:00,
2013-06-05 22:26:00,65.2,43.9,29.95,ESE,114,3.0,9.0,46,0.00,,,0.00,Wunderground v.1.15,2013-06-06 02:26:00,
2013-06-05 22:28:00,65.1,43.8,29.96,ESE,119,0.0,9.0,46,0.00,,,0.00,Wunderground v.1.15,2013-06-06 02:28:00,
2013-06-05 22:29:00,65.1,43.8,29.95,ESE,120,0.0,9.0,46,0.00,,,0.00,Wunderground v.1.15,2013-06-06 02:29:00,
2013-06-05 22:30:00,65.0,43.7,29.95,East,101,3.0,4.0,46,0.00,,,0.00,Wunderground v.1.15,2013-06-06 02:30:00,
2013-06-05 22:31:00,65.0,43.1,29.95,ENE,69,2.0,4.0,45,0.00,,,0.00,Wunderground v.1.15,2013-06-06 02:31:00,
2013-06-05 22:32:00,65.0,43.7,29.96,East,98,6.0,9.0,46,0.00,,,0.00,Wunderground v.1.15,2013-06-06 02:32:00,
2013-06-05 22:33:00,65.0,43.7,29.96,East,96,2.0,9.0,46,0.00,,,0.00,Wunderground v.1.15,2013-06-06 02:33:00,
2013-06-05 22:34:00,65.0,43.7,29.96,East,87,1.0,9.0,46,0.00,,,0.00,Wunderground v.1.15,2013-06-06 02:34:00,
2013-06-05 22:36:00,65.0,43.7,29.96,East,97,1.0,9.0,46,0.00,,,0.00,Wunderground v.1.15,2013-06-06 02:36:00,
2013-06-05 22:37:00,65.0,44.3,29.96,ESE,106,1.0,9.0,47,0.00,,,0.00,Wunderground v.1.15,2013-06-06 02:37:00,
2013-06-05 22:38:00,65.0,43.7,29.96,East,84,2.0,9.0,46,0.00,,,0.00,Wunderground v.1.15,2013-06-06 02:38:00,
2013-06-05 22:39:00,65.0,44.3,29.96,East,85,0.0,9.0,47,0.00,,,0.00,Wunderground v.1.15,2013-06-06 02:39:00,
2013-06-05 22:41:00,64.8,44.1,29.96,East,90,2.0,2.0,47,0.00,,,0.00,Wunderground v.1.15,2013-06-06 02:41:00,
2013-06-05 22:42:00,64.8,44.1,29.96,East,90,2.0,5.0,47,0.00,,,0.00,Wunderground v.1.15,2013-06-06 02:42:00,
2013-06-05 22:43:00,64.8,44.1,29.96,East,90,0.0,5.0,47,0.00,,,0.00,Wunderground v.1.15,2013-06-06 02:43:00,
2013-06-05 22:44:00,64.7,44.0,29.96,ESE,107,3.0,5.0,47,0.00,,,0.00,Wunderground v.1.15,2013-06-06 02:44:00,
2013-06-05 22:47:00,64.7,44.0,29.96,SE,128,0.0,7.0,47,0.00,,,0.00,Wunderground v.1.15,2013-06-06 02:47:00,
2013-06-05 22:48:00,64.7,44.0,29.96,East,98,1.0,7.0,47,0.00,,,0.00,Wunderground v.1.15,2013-06-06 02:48:00,
2013-06-05 22:49:00,64.6,44.5,29.95,East,98,0.0,7.0,48,0.00,,,0.00,Wunderground v.1.15,2013-06-06 02:49:00,
2013-06-05 22:52:00,64.5,44.4,29.95,ESE,113,2.0,4.0,48,0.00,,,0.00,Wunderground v.1.15,2013-06-06 02:52:00,
2013-06-05 22:53:00,64.5,44.9,29.95,East,101,1.0,4.0,49,0.00,,,0.00,Wunderground v.1.15,2013-06-06 02:53:00,
2013-06-05 22:54:00,64.5,44.9,29.95,East,96,2.0,4.0,49,0.00,,,0.00,Wunderground v.1.15,2013-06-06 02:54:00,
2013-06-05 22:57:00,64.5,44.4,29.95,East,88,4.0,7.0,48,0.00,,,0.00,Wunderground v.1.15,2013-06-06 02:57:00,
2013-06-05 22:58:00,64.4,44.3,29.95,East,97,4.0,7.0,48,0.00,,,0.00,Wunderground v.1.15,2013-06-06 02:58:00,
2013-06-05 22:59:00,64.4,44.3,29.95,East,86,1.0,7.0,48,0.00,,,0.00,Wunderground v.1.15,2013-06-06 02:59:00,
2013-06-05 23:03:00,64.3,44.7,29.95,East,88,1.0,5.0,49,0.00,,,0.00,Wunderground v.1.15,2013-06-06 03:03:00,
2013-06-05 23:04:00,64.2,45.2,29.95,East,96,2.0,9.0,50,0.00,,,0.00,Wunderground v.1.15,2013-06-06 03:04:00,
2013-06-05 23:05:00,64.1,45.1,29.95,East,97,4.0,9.0,50,0.00,,,0.00,Wunderground v.1.15,2013-06-06 03:05:00,
2013-06-05 23:08:00,64.0,45.5,29.95,SE,124,2.0,9.0,51,0.00,,,0.00,Wunderground v.1.15,2013-06-06 03:08:00,
2013-06-05 23:09:00,63.9,45.4,29.95,ESE,108,0.0,9.0,51,0.00,,,0.00,Wunderground v.1.15,2013-06-06 03:09:00,
2013-06-05 23:10:00,63.8,45.3,29.95,East,90,1.0,5.0,51,0.00,,,0.00,Wunderground v.1.15,2013-06-06 03:10:00,
2013-06-05 23:12:00,63.7,45.2,29.95,East,92,4.0,5.0,51,0.00,,,0.00,Wunderground v.1.15,2013-06-06 03:12:00,
2013-06-05 23:14:00,63.7,45.7,29.95,ESE,111,4.0,5.0,52,0.00,,,0.00,Wunderground v.1.15,2013-06-06 03:14:00,
2013-06-05 23:15:00,63.6,45.1,29.95,East,84,1.0,6.0,51,0.00,,,0.00,Wunderground v.1.15,2013-06-06 03:15:00,
2013-06-05 23:17:00,63.6,45.6,29.95,SE,131,7.0,10.0,52,0.00,,,0.00,Wunderground v.1.15,2013-06-06 03:17:00,
2013-06-05 23:19:00,63.6,45.1,29.96,ESE,107,0.0,10.0,51,0.00,,,0.00,Wunderground v.1.15,2013-06-06 03:19:00,
2013-06-05 23:20:00,63.5,45.6,29.95,ESE,107,1.0,3.0,52,0.00,,,0.00,Wunderground v.1.15,2013-06-06 03:20:00,
2013-06-05 23:23:00,63.4,46.0,29.95,East,98,2.0,5.0,53,0.00,,,0.00,Wunderground v.1.15,2013-06-06 03:23:00,
2013-06-05 23:24:00,63.3,45.9,29.95,East,101,2.0,5.0,53,0.00,,,0.00,Wunderground v.1.15,2013-06-06 03:24:00,
2013-06-05 23:25:00,63.3,45.9,29.95,East,101,3.0,5.0,53,0.00,,,0.00,Wunderground v.1.15,2013-06-06 03:25:00,
2013-06-05 23:26:00,63.3,45.9,29.95,East,101,1.0,5.0,53,0.00,,,0.00,Wunderground v.1.15,2013-06-06 03:26:00,
2013-06-05 23:28:00,63.2,45.3,29.95,East,96,2.0,7.0,52,0.00,,,0.00,Wunderground v.1.15,2013-06-06 03:28:00,
2013-06-05 23:29:00,63.3,45.9,29.95,East,101,2.0,7.0,53,0.00,,,0.00,Wunderground v.1.15,2013-06-06 03:29:00,
2013-06-05 23:30:00,63.2,45.8,29.95,ESE,117,2.0,5.0,53,0.00,,,0.00,Wunderground v.1.15,2013-06-06 03:30:00,
2013-06-05 23:32:00,63.2,45.8,29.95,East,92,1.0,5.0,53,0.00,,,0.00,Wunderground v.1.15,2013-06-06 03:32:00,
2013-06-05 23:34:00,63.1,45.7,29.95,SE,129,1.0,5.0,53,0.00,,,0.00,Wunderground v.1.15,2013-06-06 03:34:00,
2013-06-05 23:36:00,63.1,45.7,29.95,ESE,122,9.0,10.0,53,0.00,,,0.00,Wunderground v.1.15,2013-06-06 03:36:00,
2013-06-05 23:37:00,63.1,45.7,29.95,ESE,111,5.0,10.0,53,0.00,,,0.00,Wunderground v.1.15,2013-06-06 03:37:00,
2013-06-05 23:39:00,63.2,45.8,29.95,ESE,109,3.0,10.0,53,0.00,,,0.00,Wunderground v.1.15,2013-06-06 03:39:00,
2013-06-05 23:40:00,63.1,45.7,29.95,ESE,108,5.0,10.0,53,0.00,,,0.00,Wunderground v.1.15,2013-06-06 03:40:00,
2013-06-05 23:41:00,63.2,45.8,29.95,East,80,4.0,7.0,53,0.00,,,0.00,Wunderground v.1.15,2013-06-06 03:41:00,
2013-06-05 23:43:00,63.1,45.7,29.95,ESE,103,3.0,10.0,53,0.00,,,0.00,Wunderground v.1.15,2013-06-06 03:43:00,
2013-06-05 23:44:00,63.1,45.7,29.95,East,90,7.0,10.0,53,0.00,,,0.00,Wunderground v.1.15,2013-06-06 03:44:00,
2013-06-05 23:45:00,63.1,45.7,29.95,SE,139,2.0,10.0,53,0.00,,,0.00,Wunderground v.1.15,2013-06-06 03:45:00,
2013-06-05 23:47:00,63.0,45.6,29.95,ESE,116,3.0,10.0,53,0.00,,,0.00,Wunderground v.1.15,2013-06-06 03:47:00,
2013-06-05 23:48:00,63.0,46.1,29.95,ENE,73,9.0,10.0,54,0.00,,,0.00,Wunderground v.1.15,2013-06-06 03:48:00,
2013-06-05 23:49:00,62.9,45.5,29.95,East,92,2.0,12.0,53,0.00,,,0.00,Wunderground v.1.15,2013-06-06 03:49:00,
2013-06-05 23:50:00,63.0,45.6,29.95,ESE,111,4.0,7.0,53,0.00,,,0.00,Wunderground v.1.15,2013-06-06 03:50:00,
2013-06-05 23:52:00,62.9,45.5,29.95,NE,49,2.0,7.0,53,0.00,,,0.00,Wunderground v.1.15,2013-06-06 03:52:00,
2013-06-05 23:53:00,62.9,45.5,29.96,ESE,104,4.0,7.0,53,0.00,,,0.00,Wunderground v.1.15,2013-06-06 03:53:00,
2013-06-05 23:54:00,62.9,45.5,29.95,East,94,1.0,7.0,53,0.00,,,0.00,Wunderground v.1.15,2013-06-06 03:54:00,
2013-06-05 23:55:00,62.9,45.5,29.95,ESE,113,4.0,7.0,53,0.00,,,0.00,Wunderground v.1.15,2013-06-06 03:55:00,
2013-06-05 23:57:00,62.9,46.0,29.95,ESE,113,5.0,7.0,54,0.00,,,0.00,Wunderground v.1.15,2013-06-06 03:57:00,
2013-06-05 23:58:00,62.9,45.5,29.95,East,101,1.0,8.0,53,0.00,,,0.00,Wunderground v.1.15,2013-06-06 03:58:00,